KC5DAQ-26 Weather Reports


Display with metric or nautical units.
time (UTC)temp
F
wind
direction
speed
MPH
gust
MPH
rain 1hr
in
rain 24hr
in
rain mn
in
humidity
%
barometer
mb
20240227113836 70 199 2.0 6.0 0.00 0.00 0.00 88 1012.8
20240227113737 70 199 2.0 6.0 0.00 0.00 0.00 88 1012.8
20240227113636 70 199 2.0 6.0 0.00 0.00 0.00 87 1012.8
20240227113537 70 230 2.0 6.0 0.00 0.00 0.00 87 1012.8
20240227113435 70 241 2.0 6.0 0.00 0.00 0.00 87 1012.8
20240227113336 70 138 2.0 6.0 0.00 0.00 0.00 87 1012.7
20240227113236 70 164 2.0 6.0 0.00 0.00 0.00 88 1012.8
20240227113135 70 261 2.0 6.0 0.00 0.00 0.00 88 1012.8
20240227113035 70 250 2.0 6.0 0.00 0.00 0.00 88 1012.8
20240227112937 70 214 2.0 6.0 0.00 0.00 0.00 88 1012.8
20240227112835 70 152 2.0 6.0 0.00 0.00 0.00 88 1012.7
20240227112735 70 151 3.0 6.0 0.00 0.00 0.00 88 1012.7
20240227112634 70 142 2.0 6.0 0.00 0.00 0.00 88 1012.8
20240227112536 70 219 2.0 6.0 0.00 0.00 0.00 88 1012.8
20240227112435 70 219 3.0 6.0 0.00 0.00 0.00 88 1012.7
20240227112336 70 166 3.0 6.0 0.00 0.00 0.00 88 1012.8
20240227112234 70 238 4.0 6.0 0.00 0.00 0.00 88 1012.8
20240227112135 70 226 4.0 6.0 0.00 0.00 0.00 88 1012.8
20240227112034 70 213 3.0 5.0 0.00 0.00 0.00 87 1012.8
20240227111934 70 254 2.0 5.0 0.00 0.00 0.00 88 1012.9
20240227111836 70 125 1.0 5.0 0.00 0.00 0.00 88 1013.0
20240227111735 70 252 2.0 5.0 0.00 0.00 0.00 87 1013.0
20240227111634 70 172 2.0 5.0 0.00 0.00 0.00 87 1013.0
20240227111533 70 276 2.0 6.0 0.00 0.00 0.00 87 1013.0
20240227111431 70 193 2.0 7.0 0.00 0.00 0.00 87 1012.9
20240227111331 70 262 2.0 7.0 0.00 0.00 0.00 87 1012.9
20240227111231 70 298 2.0 7.0 0.00 0.00 0.00 87 1012.8
20240227111131 70 172 2.0 7.0 0.00 0.00 0.00 87 1012.8
20240227111031 70 272 3.0 7.0 0.00 0.00 0.00 87 1012.9
20240227110933 70 0 2.0 7.0 0.00 0.00 0.00 87 1012.8
20240227110831 70 148 2.0 7.0 0.00 0.00 0.00 87 1012.8
20240227110730 70 131 3.0 7.0 0.00 0.00 0.00 87 1012.8
20240227110629 70 268 4.0 7.0 0.00 0.00 0.00 87 1012.8
20240227110528 70 221 3.0 7.0 0.00 0.00 0.00 87 1012.8
20240227110426 70 120 2.0 6.0 0.00 0.00 0.00 87 1012.8
20240227110326 70 165 2.0 6.0 0.00 0.00 0.00 87 1012.8
20240227110223 70 141 2.0 6.0 0.00 0.00 0.00 87 1012.9
20240227110123 70 41 2.0 6.0 0.00 0.00 0.00 87 1012.9
20240227110018 70 113 3.0 6.0 0.00 0.00 0.00 87 1012.8
20240227105918 70 326 2.0 5.0 0.00 0.00 0.00 87 1012.8
20240227105817 70 210 2.0 7.0 0.00 0.00 0.00 87 1012.8
20240227105714 70 47 2.0 7.0 0.00 0.00 0.00 87 1012.8
20240227105613 70 110 1.0 7.0 0.00 0.00 0.00 87 1012.8
20240227105511 70 299 2.0 7.0 0.00 0.00 0.00 87 1012.8
20240227105409 70 295 2.0 7.0 0.00 0.00 0.00 87 1012.8
20240227105310 70 142 2.0 7.0 0.00 0.00 0.00 87 1012.8
20240227105207 70 142 2.0 7.0 0.00 0.00 0.00 87 1012.8
20240227105106 70 182 2.0 7.0 0.00 0.00 0.00 87 1012.8
20240227105005 70 69 3.0 7.0 0.00 0.00 0.00 87 1012.8
20240227104903 70 269 3.0 7.0 0.00 0.00 0.00 87 1012.8
20240227104801 70 79 2.0 6.0 0.00 0.00 0.00 87 1012.9
20240227104701 70 145 2.0 6.0 0.00 0.00 0.00 87 1012.9
20240227104604 70 159 2.0 11.0 0.00 0.00 0.00 87 1012.9
20240227104503 70 96 2.0 11.0 0.00 0.00 0.00 87 1012.9
20240227104403 70 245 2.0 11.0 0.00 0.00 0.00 87 1013.0
20240227104303 70 272 2.0 11.0 0.00 0.00 0.00 87 1012.9
20240227104203 70 164 2.0 11.0 0.00 0.00 0.00 87 1012.8
20240227104102 70 281 2.0 11.0 0.00 0.00 0.00 87 1013.0
20240227104003 70 241 3.0 11.0 0.00 0.00 0.00 87 1012.9
20240227103903 70 199 2.0 12.0 0.00 0.00 0.00 87 1013.0
20240227103802 70 306 4.0 12.0 0.00 0.00 0.00 87 1013.0
20240227103702 70 149 4.0 12.0 0.00 0.00 0.00 87 1012.9
20240227103604 70 145 2.0 12.0 0.00 0.00 0.00 87 1012.9
20240227103503 70 282 2.0 12.0 0.00 0.00 0.00 87 1013.0
20240227103404 70 282 3.0 12.0 0.00 0.00 0.00 87 1013.0
20240227103302 70 299 2.0 12.0 0.00 0.00 0.00 87 1013.0
20240227103203 70 348 3.0 12.0 0.00 0.00 0.00 87 1013.0
20240227103102 70 282 4.0 12.0 0.00 0.00 0.00 87 1012.9
20240227103004 70 231 4.0 12.0 0.00 0.00 0.00 87 1013.0
20240227102903 70 168 3.0 7.0 0.00 0.00 0.00 87 1013.0
20240227102803 70 210 1.0 4.0 0.00 0.00 0.00 87 1013.1
20240227102702 70 303 2.0 4.0 0.00 0.00 0.00 87 1013.0
20240227102604 70 296 2.0 4.0 0.00 0.00 0.00 87 1013.0
20240227102504 70 183 2.0 4.0 0.00 0.00 0.00 87 1013.0
20240227102402 70 99 1.0 4.0 0.00 0.00 0.00 87 1012.9
20240227102305 70 235 1.0 4.0 0.00 0.00 0.00 87 1012.9
20240227102203 70 237 2.0 6.0 0.00 0.00 0.00 87 1012.9
20240227102103 70 0 2.0 6.0 0.00 0.00 0.00 87 1013.0
20240227102002 70 72 2.0 6.0 0.00 0.00 0.00 87 1013.0
20240227101903 70 71 2.0 6.0 0.00 0.00 0.00 87 1012.9
20240227101802 70 169 1.0 6.0 0.00 0.00 0.00 87 1013.0
20240227101702 70 23 1.0 6.0 0.00 0.00 0.00 87 1013.0
20240227101601 70 85 1.0 6.0 0.00 0.00 0.00 87 1013.0
20240227101503 70 148 1.0 7.0 0.00 0.00 0.00 87 1013.0
20240227101401 70 207 2.0 7.0 0.00 0.00 0.00 87 1013.0
20240227101302 70 206 2.0 7.0 0.00 0.00 0.00 87 1013.0
20240227101203 70 210 1.0 7.0 0.00 0.00 0.00 87 1013.1
20240227101103 70 35 1.0 7.0 0.00 0.00 0.00 87 1013.1
20240227101002 70 35 2.0 7.0 0.00 0.00 0.00 86 1013.1
20240227100903 70 241 2.0 7.0 0.00 0.00 0.00 86 1013.1
20240227100803 70 245 2.0 7.0 0.00 0.00 0.00 86 1013.3
20240227100702 70 134 3.0 7.0 0.00 0.00 0.00 86 1013.3
20240227100602 70 321 3.0 7.0 0.00 0.00 0.00 87 1013.3
20240227100505 70 193 2.0 7.0 0.00 0.00 0.00 87 1013.3
20240227100402 70 313 3.0 7.0 0.00 0.00 0.00 86 1013.2
20240227100302 70 275 4.0 7.0 0.00 0.00 0.00 86 1013.3
20240227100204 70 327 2.0 7.0 0.00 0.00 0.00 86 1013.2
20240227100104 70 0 2.0 7.0 0.00 0.00 0.00 87 1013.2
20240227100002 70 337 2.0 7.0 0.00 0.00 0.00 86 1013.3
20240227095901 70 203 2.0 7.0 0.00 0.00 0.00 86 1013.2
20240227095803 70 197 3.0 7.0 0.00 0.00 0.00 86 1013.1
20240227095702 70 235 4.0 7.0 0.00 0.00 0.00 86 1013.2
20240227095602 70 140 4.0 7.0 0.00 0.00 0.00 86 1013.1
20240227095505 70 176 2.0 10.0 0.00 0.00 0.00 86 1013.2
20240227095403 70 313 2.0 10.0 0.00 0.00 0.00 86 1013.2
20240227095301 70 157 2.0 10.0 0.00 0.00 0.00 86 1013.1
20240227095202 70 86 2.0 10.0 0.00 0.00 0.00 86 1013.1
20240227095102 70 134 4.0 10.0 0.00 0.00 0.00 86 1013.1
20240227095002 70 230 4.0 10.0 0.00 0.00 0.00 86 1013.1
20240227094902 70 113 3.0 10.0 0.00 0.00 0.00 86 1013.1
20240227094803 70 147 2.0 10.0 0.00 0.00 0.00 86 1013.2
20240227094702 70 155 5.0 10.0 0.00 0.00 0.00 86 1013.2
20240227094603 70 199 4.0 10.0 0.00 0.00 0.00 86 1013.2
20240227094504 70 106 3.0 10.0 0.00 0.00 0.00 86 1013.3
20240227094402 70 127 3.0 10.0 0.00 0.00 0.00 86 1013.4
20240227094301 71 125 3.0 10.0 0.00 0.00 0.00 86 1013.4
20240227094202 71 247 3.0 10.0 0.00 0.00 0.00 86 1013.4
20240227094103 71 186 2.0 10.0 0.00 0.00 0.00 86 1013.3
20240227094002 71 309 2.0 10.0 0.00 0.00 0.00 86 1013.5
20240227093902 71 309 3.0 10.0 0.00 0.00 0.00 86 1013.5
20240227093802 71 154 3.0 10.0 0.00 0.00 0.00 86 1013.4
20240227093703 71 120 4.0 10.0 0.00 0.00 0.00 86 1013.5
20240227093602 71 107 5.0 10.0 0.00 0.00 0.00 86 1013.6
20240227093502 71 173 5.0 10.0 0.00 0.00 0.00 86 1013.5
20240227093402 71 179 3.0 7.0 0.00 0.00 0.00 86 1013.5
20240227093302 71 235 2.0 7.0 0.00 0.00 0.00 86 1013.6
20240227093202 70 39 2.0 7.0 0.00 0.00 0.00 86 1013.7
20240227093104 71 166 2.0 7.0 0.00 0.00 0.00 86 1013.7
20240227093002 71 186 3.0 7.0 0.00 0.00 0.00 86 1013.7
20240227092902 71 125 3.0 7.0 0.00 0.00 0.00 86 1013.7
20240227092803 71 192 2.0 7.0 0.00 0.00 0.00 86 1013.8
20240227092701 71 171 4.0 7.0 0.00 0.00 0.00 86 1013.9
20240227092602 71 289 2.0 10.0 0.00 0.00 0.00 86 1013.7
20240227092502 71 238 1.0 10.0 0.00 0.00 0.00 86 1013.9
20240227092402 71 202 2.0 10.0 0.00 0.00 0.00 86 1013.7
20240227092305 71 204 2.0 10.0 0.00 0.00 0.00 86 1013.8
20240227092201 71 183 3.0 11.0 0.00 0.00 0.00 86 1013.7
20240227092103 71 185 4.0 11.0 0.00 0.00 0.00 86 1013.7
20240227092002 71 197 4.0 11.0 0.00 0.00 0.00 86 1013.7
20240227091902 71 130 3.0 11.0 0.00 0.00 0.00 86 1013.8
20240227091802 71 245 2.0 11.0 0.00 0.00 0.00 86 1013.8
20240227091702 71 111 3.0 11.0 0.00 0.00 0.00 86 1013.8
20240227091602 71 254 3.0 11.0 0.00 0.00 0.00 86 1013.8
20240227091502 71 324 4.0 11.0 0.00 0.00 0.00 86 1013.8
20240227091402 71 124 4.0 11.0 0.00 0.00 0.00 86 1014.0
20240227091302 71 338 3.0 11.0 0.00 0.00 0.00 86 1013.8
20240227091201 71 131 3.0 5.0 0.00 0.00 0.00 86 1014.0
20240227091101 71 125 3.0 5.0 0.00 0.00 0.00 86 1014.2
20240227091002 71 281 2.0 5.0 0.00 0.00 0.00 86 1014.1
20240227090902 71 216 2.0 5.0 0.00 0.00 0.00 86 1014.1
20240227090800 71 305 2.0 5.0 0.00 0.00 0.00 86 1014.1
20240227090659 71 133 1.0 5.0 0.00 0.00 0.00 86 1014.2
20240227090558 71 133 2.0 5.0 0.00 0.00 0.00 86 1014.1
20240227090455 71 123 2.0 5.0 0.00 0.00 0.00 86 1014.1
20240227090354 71 168 1.0 6.0 0.00 0.00 0.00 86 1014.0
20240227090246 71 226 2.0 6.0 0.00 0.00 0.00 86 1014.1
20240227090145 71 217 2.0 6.0 0.00 0.00 0.00 86 1014.1
20240227090045 71 172 2.0 6.0 0.00 0.00 0.00 86 1014.2
20240227085943 71 172 2.0 6.0 0.00 0.00 0.00 86 1014.2
20240227085841 71 209 2.0 6.0 0.00 0.00 0.00 86 1014.3
20240227085739 71 329 2.0 6.0 0.00 0.00 0.00 86 1014.3
20240227085639 71 329 2.0 6.0 0.00 0.00 0.00 86 1014.3
20240227085537 71 259 2.0 6.0 0.00 0.00 0.00 86 1014.3
20240227085435 71 240 2.0 6.0 0.00 0.00 0.00 86 1014.3
20240227085332 71 306 2.0 6.0 0.00 0.00 0.00 86 1014.3
20240227085232 71 278 2.0 6.0 0.00 0.00 0.00 86 1014.2
20240227085131 71 285 3.0 6.0 0.00 0.00 0.00 86 1014.3
20240227085031 71 14 4.0 6.0 0.00 0.00 0.00 86 1014.3
20240227084931 71 190 3.0 6.0 0.00 0.00 0.00 86 1014.2
20240227084831 71 169 2.0 7.0 0.00 0.00 0.00 86 1014.3
20240227084730 71 312 2.0 9.0 0.00 0.00 0.00 86 1014.1
20240227084631 71 288 2.0 9.0 0.00 0.00 0.00 86 1014.1
20240227084533 71 282 2.0 9.0 0.00 0.00 0.00 86 1014.1
20240227084431 71 281 2.0 9.0 0.00 0.00 0.00 86 1014.1
20240227084331 71 296 3.0 9.0 0.00 0.00 0.00 86 1014.1
20240227084232 71 203 2.0 9.0 0.00 0.00 0.00 86 1014.0
20240227084131 71 343 2.0 9.0 0.00 0.00 0.00 86 1014.0
20240227084031 71 343 2.0 9.0 0.00 0.00 0.00 86 1014.0
20240227083933 71 305 3.0 9.0 0.00 0.00 0.00 86 1013.9
20240227083831 71 113 3.0 9.0 0.00 0.00 0.00 86 1013.9
20240227083731 71 197 2.0 5.0 0.00 0.00 0.00 86 1013.9
20240227083631 71 190 2.0 5.0 0.00 0.00 0.00 86 1014.0
20240227083532 71 173 2.0 7.0 0.00 0.00 0.00 86 1013.9
20240227083432 71 31 2.0 7.0 0.00 0.00 0.00 86 1014.0
20240227083330 71 279 2.0 10.0 0.00 0.00 0.00 86 1014.1
20240227083227 71 144 1.0 10.0 0.00 0.00 0.00 86 1014.0
20240227083126 71 173 2.0 10.0 0.00 0.00 0.00 86 1014.0
20240227083026 71 120 3.0 10.0 0.00 0.00 0.00 86 1014.0
20240227082923 71 202 2.0 11.0 0.00 0.00 0.00 86 1014.1
20240227082823 71 0 2.0 11.0 0.00 0.00 0.00 86 1014.1
20240227082720 71 0 3.0 11.0 0.00 0.00 0.00 86 1014.1
20240227082619 71 227 3.0 11.0 0.00 0.00 0.00 86 1014.0
20240227082518 71 265 5.0 11.0 0.00 0.00 0.00 86 1014.1
20240227082415 71 148 4.0 11.0 0.00 0.00 0.00 86 1014.0
20240227082315 71 147 2.0 11.0 0.00 0.00 0.00 86 1014.0
20240227082211 71 309 2.0 11.0 0.00 0.00 0.00 86 1014.1
20240227082111 71 168 4.0 11.0 0.00 0.00 0.00 86 1014.1
20240227082011 71 149 3.0 11.0 0.00 0.00 0.00 86 1013.9
20240227081906 70 123 2.0 11.0 0.00 0.00 0.00 86 1014.1
20240227081803 71 262 2.0 11.0 0.00 0.00 0.00 86 1014.1
20240227081703 71 120 1.0 11.0 0.00 0.00 0.00 86 1014.1
20240227081603 71 313 2.0 11.0 0.00 0.00 0.00 86 1014.2
20240227081503 71 314 2.0 11.0 0.00 0.00 0.00 86 1014.1
20240227081401 71 213 2.0 11.0 0.00 0.00 0.00 86 1014.2
20240227081302 71 313 3.0 11.0 0.00 0.00 0.00 86 1014.1
20240227081203 71 123 4.0 11.0 0.00 0.00 0.00 86 1014.2
20240227081102 71 244 3.0 10.0 0.00 0.00 0.00 86 1014.2
20240227081003 71 234 4.0 10.0 0.00 0.00 0.00 86 1014.2
20240227080903 71 168 3.0 10.0 0.00 0.00 0.00 86 1014.4
20240227080802 71 107 2.0 6.0 0.00 0.00 0.00 86 1014.3
20240227080702 71 166 2.0 6.0 0.00 0.00 0.00 86 1014.3
20240227080602 71 195 2.0 6.0 0.00 0.00 0.00 86 1014.3
20240227080503 71 209 2.0 10.0 0.00 0.00 0.00 86 1014.4
20240227080402 71 207 2.0 10.0 0.00 0.00 0.00 86 1014.4
20240227080302 71 214 3.0 10.0 0.00 0.00 0.00 86 1014.4
20240227080202 71 165 3.0 10.0 0.00 0.00 0.00 86 1014.4
20240227080102 71 213 3.0 10.0 0.00 0.00 0.00 86 1014.4
20240227080003 71 209 3.0 10.0 0.00 0.00 0.00 86 1014.4
20240227075903 71 131 2.0 10.0 0.00 0.00 0.00 86 1014.5
20240227075802 71 286 2.0 10.0 0.00 0.00 0.00 86 1014.5
20240227075703 71 224 3.0 10.0 0.00 0.00 0.00 86 1014.5
20240227075602 71 159 3.0 10.0 0.00 0.00 0.00 86 1014.5
20240227075504 71 272 2.0 12.0 0.00 0.00 0.00 86 1014.3
20240227075403 71 190 2.0 12.0 0.00 0.00 0.00 86 1014.4
20240227075305 71 158 2.0 12.0 0.00 0.00 0.00 86 1014.4
20240227075204 71 123 2.0 12.0 0.00 0.00 0.00 86 1014.5
20240227075103 71 275 1.0 12.0 0.00 0.00 0.00 86 1014.4
20240227075002 71 250 2.0 12.0 0.00 0.00 0.00 86 1014.5
20240227074901 71 302 3.0 12.0 0.00 0.00 0.00 86 1014.5
20240227074802 71 286 2.0 12.0 0.00 0.00 0.00 86 1014.5
20240227074703 71 87 3.0 12.0 0.00 0.00 0.00 86 1014.5
20240227074603 71 204 4.0 12.0 0.00 0.00 0.00 87 1014.6
20240227074504 71 234 3.0 9.0 0.00 0.00 0.00 87 1014.6
20240227074403 71 0 2.0 7.0 0.00 0.00 0.00 87 1014.6
20240227074301 71 148 2.0 7.0 0.00 0.00 0.00 87 1014.6
20240227074203 71 162 2.0 7.0 0.00 0.00 0.00 87 1014.6
20240227074103 71 166 3.0 7.0 0.00 0.00 0.00 87 1014.7
20240227074002 71 109 3.0 7.0 0.00 0.00 0.00 87 1014.6
20240227073902 71 183 2.0 6.0 0.00 0.00 0.00 87 1014.7
20240227073803 71 324 2.0 6.0 0.00 0.00 0.00 87 1014.8
20240227073702 71 326 3.0 7.0 0.00 0.00 0.00 87 1014.8
20240227073603 71 281 2.0 9.0 0.00 0.00 0.00 87 1014.8
20240227073504 71 141 3.0 9.0 0.00 0.00 0.00 87 1014.7
20240227073403 71 128 3.0 9.0 0.00 0.00 0.00 87 1014.7
20240227073302 71 178 3.0 10.0 0.00 0.00 0.00 87 1014.9
20240227073202 71 276 2.0 10.0 0.00 0.00 0.00 87 1014.8
20240227073103 71 145 2.0 10.0 0.00 0.00 0.00 87 1014.9
20240227073003 71 178 3.0 10.0 0.00 0.00 0.00 87 1014.8
20240227072902 71 264 3.0 10.0 0.00 0.00 0.00 87 1014.7
20240227072803 71 178 4.0 10.0 0.00 0.00 0.00 87 1014.8
20240227072702 71 172 4.0 10.0 0.00 0.00 0.00 87 1014.8
20240227072601 71 157 4.0 10.0 0.00 0.00 0.00 87 1014.7
20240227072501 71 276 4.0 10.0 0.00 0.00 0.00 87 1014.7
20240227072404 71 247 2.0 10.0 0.00 0.00 0.00 87 1014.9
20240227072305 71 217 2.0 9.0 0.00 0.00 0.00 87 1014.9
20240227072202 71 140 4.0 9.0 0.00 0.00 0.00 87 1014.9
20240227072103 71 209 5.0 9.0 0.00 0.00 0.00 87 1014.8
20240227072004 71 39 3.0 6.0 0.00 0.00 0.00 87 1014.8
20240227071903 71 206 2.0 6.0 0.00 0.00 0.00 87 1014.8
20240227071803 70 176 2.0 5.0 0.00 0.00 0.00 87 1014.9
20240227071702 70 220 2.0 5.0 0.00 0.00 0.00 87 1014.8
20240227071602 71 172 2.0 5.0 0.00 0.00 0.00 87 1014.6
20240227071502 71 154 2.0 6.0 0.00 0.00 0.00 87 1014.6
20240227071403 71 161 2.0 6.0 0.00 0.00 0.00 87 1014.6
20240227071301 70 303 2.0 6.0 0.00 0.00 0.00 87 1014.7
20240227071202 71 209 2.0 6.0 0.00 0.00 0.00 87 1014.7
20240227071103 71 200 3.0 6.0 0.00 0.00 0.00 87 1014.7
20240227071004 71 212 2.0 6.0 0.00 0.00 0.00 87 1014.7
20240227070902 71 134 2.0 6.0 0.00 0.00 0.00 87 1014.6
20240227070802 71 104 2.0 6.0 0.00 0.00 0.00 87 1014.8
20240227070702 71 252 3.0 10.0 0.00 0.00 0.00 87 1014.7
20240227070602 71 141 3.0 10.0 0.00 0.00 0.00 87 1014.7
20240227070502 71 89 3.0 10.0 0.00 0.00 0.00 87 1014.8
20240227070403 71 148 2.0 10.0 0.00 0.00 0.00 87 1014.7
20240227070301 70 127 2.0 10.0 0.00 0.00 0.00 87 1014.9
20240227070202 71 130 3.0 10.0 0.00 0.00 0.00 87 1014.7
20240227070102 70 195 3.0 10.0 0.00 0.00 0.00 87 1014.9
20240227070004 70 121 3.0 10.0 0.00 0.00 0.00 87 1014.9
20240227065902 70 128 4.0 10.0 0.00 0.00 0.00 87 1015.0
20240227065802 70 159 4.0 10.0 0.00 0.00 0.00 87 1014.9
20240227065703 70 23 2.0 6.0 0.00 0.00 0.00 87 1015.0
20240227065602 70 144 2.0 9.0 0.00 0.00 0.00 87 1015.0
20240227065503 70 265 2.0 9.0 0.00 0.00 0.00 87 1015.0
20240227065403 70 245 2.0 9.0 0.00 0.00 0.00 87 1015.0
20240227065305 70 275 2.0 9.0 0.00 0.00 0.00 87 1015.0
20240227065201 70 173 2.0 9.0 0.00 0.00 0.00 87 1015.0
20240227065101 71 131 2.0 9.0 0.00 0.00 0.00 87 1015.0
20240227065003 70 343 2.0 9.0 0.00 0.00 0.00 87 1015.0
20240227064903 70 268 2.0 9.0 0.00 0.00 0.00 87 1015.0
20240227064802 70 214 4.0 9.0 0.00 0.00 0.00 87 1015.0
20240227064703 70 228 3.0 9.0 0.00 0.00 0.00 87 1015.0
20240227064603 70 68 2.0 7.0 0.00 0.00 0.00 87 1015.0
20240227064502 71 172 2.0 7.0 0.00 0.00 0.00 87 1015.0
20240227064403 70 316 4.0 7.0 0.00 0.00 0.00 87 1015.0
20240227064304 71 137 4.0 9.0 0.00 0.00 0.00 87 1015.1
20240227064203 70 149 3.0 9.0 0.00 0.00 0.00 87 1015.0
20240227064101 70 188 2.0 9.0 0.00 0.00 0.00 87 1015.0
20240227064004 70 94 2.0 9.0 0.00 0.00 0.00 87 1015.0
20240227063903 70 117 2.0 9.0 0.00 0.00 0.00 87 1014.9
20240227063802 70 100 2.0 9.0 0.00 0.00 0.00 87 1015.0
20240227063703 70 24 3.0 9.0 0.00 0.00 0.00 87 1015.0
20240227063602 70 148 3.0 11.0 0.00 0.00 0.00 87 1015.0
20240227063501 70 193 3.0 11.0 0.00 0.00 0.00 87 1015.0
20240227063402 70 164 3.0 11.0 0.00 0.00 0.00 87 1015.0
20240227063303 70 296 2.0 11.0 0.00 0.00 0.00 87 1015.0
20240227063202 70 157 2.0 11.0 0.00 0.00 0.00 87 1015.1
20240227063102 71 199 3.0 11.0 0.00 0.00 0.00 87 1014.9
20240227063000 70 276 2.0 11.0 0.00 0.00 0.00 87 1015.0
20240227062859 71 196 2.0 11.0 0.00 0.00 0.00 87 1015.1
20240227062758 71 140 4.0 11.0 0.00 0.00 0.00 87 1015.0
20240227062639 71 285 3.0 11.0 0.00 0.00 0.00 86 1015.0
20240227062536 71 235 1.0 9.0 0.00 0.00 0.00 86 1015.0
20240227062437 71 250 2.0 9.0 0.00 0.00 0.00 86 1015.1
20240227062334 71 244 4.0 9.0 0.00 0.00 0.00 86 1015.1
20240227062232 71 188 3.0 9.0 0.00 0.00 0.00 86 1015.0
20240227062131 71 254 3.0 9.0 0.00 0.00 0.00 86 1015.1
20240227062031 71 210 4.0 9.0 0.00 0.00 0.00 86 1015.1
20240227061932 71 175 4.0 7.0 0.00 0.00 0.00 86 1015.1
20240227061831 71 165 4.0 7.0 0.00 0.00 0.00 86 1015.1
20240227061731 71 124 2.0 7.0 0.00 0.00 0.00 86 1015.3
20240227061631 71 124 3.0 7.0 0.00 0.00 0.00 86 1015.3
20240227061532 71 288 4.0 7.0 0.00 0.00 0.00 86 1015.3
20240227061431 71 186 4.0 7.0 0.00 0.00 0.00 86 1015.3
20240227061331 71 245 2.0 7.0 0.00 0.00 0.00 86 1015.2
20240227061233 71 63 2.0 7.0 0.00 0.00 0.00 86 1015.2
20240227061131 70 268 2.0 9.0 0.00 0.00 0.00 86 1015.2
20240227061032 70 200 1.0 9.0 0.00 0.00 0.00 87 1015.2
20240227060931 70 199 1.0 10.0 0.00 0.00 0.00 86 1015.1
20240227060832 70 207 2.0 10.0 0.00 0.00 0.00 86 1015.3
20240227060732 71 17 4.0 10.0 0.00 0.00 0.00 86 1015.2
20240227060631 71 244 4.0 10.0 0.00 0.00 0.00 87 1015.2
20240227060532 71 123 4.0 10.0 0.00 0.00 0.00 87 1015.2
20240227060432 71 189 3.0 10.0 0.00 0.00 0.00 86 1015.2
20240227060332 71 142 3.0 10.0 0.00 0.00 0.00 86 1015.3
20240227060230 71 355 2.0 10.0 0.00 0.00 0.00 86 1015.2
20240227060132 71 272 4.0 10.0 0.00 0.00 0.00 86 1015.3
20240227060031 71 224 4.0 10.0 0.00 0.00 0.00 86 1015.3
20240227055927 71 247 2.0 7.0 0.00 0.00 0.00 86 1015.3
20240227055827 71 176 1.0 7.0 0.00 0.00 0.00 87 1015.3
20240227055727 71 279 1.0 7.0 0.00 0.00 0.00 87 1015.4
20240227055627 71 298 2.0 7.0 0.00 0.00 0.00 87 1015.4
20240227055528 71 265 2.0 7.0 0.00 0.00 0.00 87 1015.4
20240227055428 70 188 2.0 7.0 0.00 0.00 0.00 87 1015.4
20240227055329 70 182 3.0 10.0 0.00 0.00 0.00 87 1015.3
20240227055228 71 233 2.0 10.0 0.00 0.00 0.00 87 1015.3
20240227055129 70 233 3.0 10.0 0.00 0.00 0.00 87 1015.3
20240227055027 70 164 4.0 10.0 0.00 0.00 0.00 87 1015.3
20240227054927 71 107 4.0 10.0 0.00 0.00 0.00 87 1015.3
20240227054829 71 209 4.0 10.0 0.00 0.00 0.00 86 1015.4
20240227054727 71 183 3.0 10.0 0.00 0.00 0.00 86 1015.4
20240227054628 71 195 3.0 10.0 0.00 0.00 0.00 86 1015.4
20240227054529 71 130 3.0 10.0 0.00 0.00 0.00 87 1015.3
20240227054427 71 148 3.0 10.0 0.00 0.00 0.00 87 1015.4
20240227054328 71 354 2.0 10.0 0.00 0.00 0.00 86 1015.3
20240227054227 71 199 2.0 10.0 0.00 0.00 0.00 87 1015.4
20240227054129 71 235 4.0 10.0 0.00 0.00 0.00 87 1015.4
20240227054027 70 128 4.0 10.0 0.00 0.00 0.00 87 1015.3
20240227053927 71 106 3.0 10.0 0.00 0.00 0.00 87 1015.3
20240227053828 70 133 2.0 10.0 0.00 0.00 0.00 87 1015.3
20240227053728 70 237 3.0 10.0 0.00 0.00 0.00 87 1015.3
20240227053628 70 147 3.0 10.0 0.00 0.00 0.00 87 1015.3
20240227053528 70 155 2.0 10.0 0.00 0.00 0.00 87 1015.3
20240227053427 70 210 4.0 10.0 0.00 0.00 0.00 87 1015.4
20240227053327 70 307 3.0 10.0 0.00 0.00 0.00 87 1015.3
20240227053226 70 290 2.0 6.0 0.00 0.00 0.00 87 1015.2
20240227053128 70 237 2.0 10.0 0.00 0.00 0.00 87 1015.3
20240227053028 70 204 2.0 10.0 0.00 0.00 0.00 87 1015.3
20240227052929 70 97 2.0 10.0 0.00 0.00 0.00 87 1015.2
20240227052827 70 110 3.0 10.0 0.00 0.00 0.00 87 1015.2
20240227052727 70 173 4.0 10.0 0.00 0.00 0.00 87 1015.3
20240227052627 70 188 2.0 10.0 0.00 0.00 0.00 87 1015.3
20240227052527 70 214 2.0 10.0 0.00 0.00 0.00 87 1015.4
20240227052427 70 214 2.0 10.0 0.00 0.00 0.00 87 1015.4
20240227052326 70 120 4.0 10.0 0.00 0.00 0.00 87 1015.4
20240227052226 70 193 4.0 10.0 0.00 0.00 0.00 87 1015.5
20240227052127 70 258 2.0 6.0 0.00 0.00 0.00 87 1015.5
20240227052026 70 111 2.0 6.0 0.00 0.00 0.00 87 1015.6
20240227051927 70 252 2.0 6.0 0.00 0.00 0.00 87 1015.5
20240227051826 70 138 2.0 6.0 0.00 0.00 0.00 87 1015.6
20240227051727 70 0 2.0 6.0 0.00 0.00 0.00 87 1015.6
20240227051626 70 75 2.0 12.0 0.00 0.00 0.00 87 1015.7
20240227051527 70 54 3.0 12.0 0.00 0.00 0.00 87 1015.6
20240227051426 70 293 4.0 12.0 0.00 0.00 0.00 87 1015.6
20240227051326 70 175 4.0 12.0 0.00 0.00 0.00 87 1015.5
20240227051228 70 151 2.0 12.0 0.00 0.00 0.00 86 1015.4
20240227051127 70 151 2.0 12.0 0.00 0.00 0.00 86 1015.5
20240227051028 70 151 2.0 12.0 0.00 0.00 0.00 86 1015.5
20240227050926 70 151 2.0 12.0 0.00 0.00 0.00 86 1015.5
20240227050826 70 141 4.0 12.0 0.00 0.00 0.00 86 1015.5
20240227050727 70 141 5.0 12.0 0.00 0.00 0.00 86 1015.5
20240227050626 70 216 2.0 7.0 0.00 0.00 0.00 86 1015.6
20240227050527 70 63 2.0 7.0 0.00 0.00 0.00 86 1015.5
20240227050426 71 138 2.0 7.0 0.00 0.00 0.00 86 1015.5
20240227050327 70 149 2.0 7.0 0.00 0.00 0.00 86 1015.6
20240227050226 71 151 2.0 9.0 0.00 0.00 0.00 86 1015.7
20240227050126 71 189 2.0 9.0 0.00 0.00 0.00 86 1015.6
20240227050026 71 193 2.0 9.0 0.00 0.00 0.00 86 1015.7
20240227045927 71 0 2.0 12.0 0.00 0.00 0.00 86 1015.6
20240227045825 71 169 3.0 14.0 0.00 0.00 0.00 86 1015.6
20240227045726 71 344 3.0 14.0 0.00 0.00 0.00 86 1015.7
20240227045628 71 282 3.0 14.0 0.00 0.00 0.00 86 1015.8
20240227045526 70 161 3.0 14.0 0.00 0.00 0.00 86 1015.7
20240227045426 71 80 3.0 14.0 0.00 0.00 0.00 86 1015.7
20240227045327 70 103 3.0 14.0 0.00 0.00 0.00 86 1015.7
20240227045225 70 20 3.0 14.0 0.00 0.00 0.00 86 1015.7
20240227045126 70 241 5.0 14.0 0.00 0.00 0.00 86 1015.7
20240227045027 70 306 5.0 14.0 0.00 0.00 0.00 86 1015.7
20240227044928 70 192 3.0 14.0 0.00 0.00 0.00 86 1015.6
20240227044825 70 133 2.0 6.0 0.00 0.00 0.00 86 1015.8
20240227044725 70 134 2.0 6.0 0.00 0.00 0.00 86 1015.7
20240227044626 70 285 2.0 6.0 0.00 0.00 0.00 86 1015.7
20240227044527 70 293 2.0 6.0 0.00 0.00 0.00 86 1015.7
20240227044425 70 295 2.0 6.0 0.00 0.00 0.00 86 1015.7
20240227044326 70 354 2.0 10.0 0.00 0.00 0.00 86 1015.7
20240227044228 71 210 2.0 10.0 0.00 0.00 0.00 86 1015.8
20240227044125 71 233 3.0 10.0 0.00 0.00 0.00 86 1015.8
20240227044025 71 195 4.0 10.0 0.00 0.00 0.00 86 1015.8
20240227043927 71 133 4.0 10.0 0.00 0.00 0.00 86 1015.7
20240227043825 71 145 3.0 10.0 0.00 0.00 0.00 86 1015.8
20240227043725 71 233 3.0 10.0 0.00 0.00 0.00 86 1015.8
20240227043625 71 351 3.0 10.0 0.00 0.00 0.00 86 1015.9
20240227043524 70 279 4.0 10.0 0.00 0.00 0.00 86 1016.0
20240227043427 71 202 4.0 10.0 0.00 0.00 0.00 86 1016.0
20240227043325 71 326 3.0 7.0 0.00 0.00 0.00 86 1015.9
20240227043225 70 262 3.0 7.0 0.00 0.00 0.00 86 1016.0
20240227043126 71 206 3.0 7.0 0.00 0.00 0.00 86 1015.9
20240227043026 71 233 2.0 7.0 0.00 0.00 0.00 86 1015.9
20240227042925 71 303 2.0 7.0 0.00 0.00 0.00 86 1016.0
20240227042826 71 52 2.0 7.0 0.00 0.00 0.00 86 1015.9
20240227042725 71 220 3.0 7.0 0.00 0.00 0.00 86 1015.9
20240227042625 71 144 3.0 7.0 0.00 0.00 0.00 86 1016.0
20240227042526 71 290 3.0 7.0 0.00 0.00 0.00 86 1016.0
20240227042427 71 130 2.0 7.0 0.00 0.00 0.00 86 1016.0
20240227042327 71 141 2.0 5.0 0.00 0.00 0.00 86 1016.1
20240227042227 71 152 2.0 5.0 0.00 0.00 0.00 86 1016.1
20240227042125 71 152 2.0 5.0 0.00 0.00 0.00 86 1016.1
20240227042026 71 237 2.0 5.0 0.00 0.00 0.00 86 1016.0
20240227041926 71 237 2.0 5.0 0.00 0.00 0.00 86 1016.0
20240227041827 71 226 2.0 6.0 0.00 0.00 0.00 86 1016.1
20240227041726 71 290 2.0 9.0 0.00 0.00 0.00 86 1016.0
20240227041626 71 125 2.0 9.0 0.00 0.00 0.00 86 1016.0
20240227041526 71 113 2.0 9.0 0.00 0.00 0.00 86 1016.0
20240227041426 71 116 2.0 9.0 0.00 0.00 0.00 86 1016.0
20240227041325 71 233 2.0 9.0 0.00 0.00 0.00 86 1016.0
20240227041225 71 114 3.0 9.0 0.00 0.00 0.00 86 1016.0
20240227041125 71 338 2.0 9.0 0.00 0.00 0.00 86 1015.9
20240227041026 71 188 3.0 9.0 0.00 0.00 0.00 86 1015.8
20240227040924 71 224 3.0 9.0 0.00 0.00 0.00 86 1015.8
20240227040826 70 75 2.0 9.0 0.00 0.00 0.00 86 1015.8
20240227040725 71 262 2.0 7.0 0.00 0.00 0.00 86 1015.8
20240227040624 71 175 3.0 7.0 0.00 0.00 0.00 86 1015.7
20240227040525 71 176 3.0 7.0 0.00 0.00 0.00 86 1015.7
20240227040425 71 155 4.0 7.0 0.00 0.00 0.00 86 1015.7
20240227040325 71 265 4.0 7.0 0.00 0.00 0.00 86 1015.7
20240227040225 71 117 4.0 12.0 0.00 0.00 0.00 86 1015.7
20240227040125 71 121 3.0 12.0 0.00 0.00 0.00 87 1015.7
20240227040025 71 247 2.0 12.0 0.00 0.00 0.00 87 1015.7
20240227035926 70 197 2.0 12.0 0.00 0.00 0.00 87 1015.8
20240227035824 71 203 2.0 12.0 0.00 0.00 0.00 87 1015.6
20240227035726 71 130 2.0 12.0 0.00 0.00 0.00 87 1015.6
20240227035624 70 226 2.0 12.0 0.00 0.00 0.00 87 1015.7
20240227035524 71 226 2.0 12.0 0.00 0.00 0.00 87 1015.6
20240227035425 70 231 4.0 12.0 0.00 0.00 0.00 87 1015.6
20240227035324 70 185 4.0 12.0 0.00 0.00 0.00 87 1015.6
20240227035224 70 288 2.0 10.0 0.00 0.00 0.00 86 1015.5
20240227035125 70 227 3.0 10.0 0.00 0.00 0.00 86 1015.6
20240227035025 71 306 4.0 10.0 0.00 0.00 0.00 87 1015.5
20240227034925 71 131 4.0 10.0 0.00 0.00 0.00 87 1015.5
20240227034825 71 193 3.0 10.0 0.00 0.00 0.00 86 1015.5
20240227034725 71 148 3.0 10.0 0.00 0.00 0.00 86 1015.5
20240227034626 71 319 2.0 10.0 0.00 0.00 0.00 86 1015.5
20240227034526 71 109 3.0 10.0 0.00 0.00 0.00 86 1015.5
20240227034425 71 114 3.0 10.0 0.00 0.00 0.00 86 1015.5
20240227034325 71 130 2.0 10.0 0.00 0.00 0.00 86 1015.5
20240227034225 71 266 2.0 9.0 0.00 0.00 0.00 86 1015.5
20240227034124 71 266 2.0 9.0 0.00 0.00 0.00 86 1015.5
20240227034026 71 353 2.0 9.0 0.00 0.00 0.00 86 1015.4
20240227033924 71 193 3.0 9.0 0.00 0.00 0.00 86 1015.5
20240227033827 71 272 3.0 9.0 0.00 0.00 0.00 86 1015.4
20240227033724 71 230 2.0 7.0 0.00 0.00 0.00 86 1015.5
20240227033625 71 114 2.0 7.0 0.00 0.00 0.00 86 1015.6
20240227033525 71 202 2.0 7.0 0.00 0.00 0.00 86 1015.6
20240227033426 71 244 3.0 7.0 0.00 0.00 0.00 86 1015.6
20240227033326 71 195 3.0 7.0 0.00 0.00 0.00 86 1015.5
20240227033224 71 149 2.0 7.0 0.00 0.00 0.00 86 1015.6
20240227033126 71 134 0.0 4.0 0.00 0.00 0.00 86 1015.5
20240227033025 71 134 1.0 5.0 0.00 0.00 0.00 86 1015.7
20240227032925 71 134 1.0 6.0 0.00 0.00 0.00 86 1015.5
20240227032824 71 173 1.0 7.0 0.00 0.00 0.00 86 1015.6
20240227032724 71 176 1.0 7.0 0.00 0.00 0.00 86 1015.5
20240227032625 71 142 1.0 7.0 0.00 0.00 0.00 86 1015.6
20240227032523 71 142 2.0 7.0 0.00 0.00 0.00 86 1015.5
20240227032424 71 149 2.0 7.0 0.00 0.00 0.00 86 1015.5
20240227032325 71 324 2.0 7.0 0.00 0.00 0.00 86 1015.5
20240227032224 71 175 2.0 7.0 0.00 0.00 0.00 86 1015.4
20240227032125 71 200 3.0 7.0 0.00 0.00 0.00 86 1015.4
20240227032023 71 221 4.0 7.0 0.00 0.00 0.00 86 1015.4
20240227031926 71 210 3.0 7.0 0.00 0.00 0.00 86 1015.4
20240227031823 71 35 2.0 6.0 0.00 0.00 0.00 86 1015.4
20240227031724 71 348 1.0 6.0 0.00 0.00 0.00 86 1015.4
20240227031624 71 185 1.0 6.0 0.00 0.00 0.00 86 1015.5
20240227031523 71 185 2.0 7.0 0.00 0.00 0.00 86 1015.5
20240227031423 71 117 2.0 9.0 0.00 0.00 0.00 86 1015.4
20240227031325 71 118 2.0 9.0 0.00 0.00 0.00 86 1015.5
20240227031215 71 121 2.0 9.0 0.00 0.00 0.00 86 1015.3
20240227031114 71 120 2.0 11.0 0.00 0.00 0.00 86 1015.4
20240227031013 71 92 3.0 11.0 0.00 0.00 0.00 86 1015.4
20240227030912 71 228 3.0 11.0 0.00 0.00 0.00 86 1015.4
20240227030811 71 106 3.0 11.0 0.00 0.00 0.00 86 1015.3
20240227030706 71 165 5.0 11.0 0.00 0.00 0.00 86 1015.2
20240227030603 71 134 5.0 11.0 0.00 0.00 0.00 86 1015.4
20240227030504 71 137 4.0 11.0 0.00 0.00 0.00 86 1015.2
20240227030403 71 190 4.0 11.0 0.00 0.00 0.00 86 1015.4
20240227030302 71 175 4.0 11.0 0.00 0.00 0.00 86 1015.4
20240227030202 71 159 3.0 7.0 0.00 0.00 0.00 86 1015.4
20240227030103 71 140 2.0 10.0 0.00 0.00 0.00 86 1015.4
20240227030003 71 62 2.0 10.0 0.00 0.00 0.00 86 1015.3
20240227025903 71 192 3.0 10.0 0.00 0.00 0.00 86 1015.4
20240227025804 71 183 3.0 10.0 0.00 0.00 0.00 86 1015.3
20240227025704 71 71 3.0 14.0 0.00 0.00 0.00 86 1015.4
20240227025602 71 255 3.0 14.0 0.00 0.00 0.00 86 1015.4
20240227025502 71 0 2.0 14.0 0.00 0.00 0.00 86 1015.4
20240227025402 71 128 2.0 14.0 0.00 0.00 0.00 86 1015.4
20240227025305 71 214 4.0 14.0 0.00 0.00 0.00 86 1015.4
20240227025204 71 209 4.0 14.0 0.00 0.00 0.00 86 1015.3
20240227025102 71 110 4.0 14.0 0.00 0.00 0.00 86 1015.4
20240227025002 71 226 4.0 14.0 0.00 0.00 0.00 86 1015.3
20240227024902 71 255 5.0 14.0 0.00 0.00 0.00 86 1015.3
20240227024803 71 140 5.0 14.0 0.00 0.00 0.00 86 1015.3
20240227024703 71 197 5.0 10.0 0.00 0.00 0.00 86 1015.2
20240227024603 71 125 2.0 12.0 0.00 0.00 0.00 86 1015.3
20240227024503 71 120 2.0 12.0 0.00 0.00 0.00 86 1015.2
20240227024403 71 124 3.0 12.0 0.00 0.00 0.00 86 1015.3
20240227024303 71 134 4.0 12.0 0.00 0.00 0.00 86 1015.4
20240227024203 71 171 4.0 12.0 0.00 0.00 0.00 86 1015.3
20240227024104 71 290 4.0 12.0 0.00 0.00 0.00 86 1015.4
20240227024004 71 152 4.0 12.0 0.00 0.00 0.00 86 1015.3
20240227023902 71 110 4.0 12.0 0.00 0.00 0.00 87 1015.4
20240227023802 71 289 4.0 12.0 0.00 0.00 0.00 87 1015.2
20240227023702 71 195 3.0 12.0 0.00 0.00 0.00 87 1015.3
20240227023602 71 189 3.0 9.0 0.00 0.00 0.00 87 1015.3
20240227023503 71 89 4.0 9.0 0.00 0.00 0.00 87 1015.2
20240227023403 71 250 4.0 9.0 0.00 0.00 0.00 87 1015.2
20240227023302 71 24 3.0 9.0 0.00 0.00 0.00 87 1015.2
20240227023202 71 138 2.0 10.0 0.00 0.00 0.00 87 1015.1
20240227023102 71 196 2.0 10.0 0.00 0.00 0.00 87 1015.1
20240227023003 71 231 3.0 10.0 0.00 0.00 0.00 87 1015.1
20240227022904 71 6 2.0 10.0 0.00 0.00 0.00 87 1015.0
20240227022803 71 6 2.0 10.0 0.00 0.00 0.00 87 1015.1
20240227022703 71 6 2.0 10.0 0.00 0.00 0.00 87 1015.1
20240227022602 71 32 2.0 10.0 0.00 0.00 0.00 87 1015.2
20240227022503 71 334 2.0 10.0 0.00 0.00 0.00 87 1015.2
20240227022403 71 140 4.0 10.0 0.00 0.00 0.00 87 1015.2
20240227022306 71 116 4.0 10.0 0.00 0.00 0.00 87 1015.2
20240227022202 71 228 2.0 9.0 0.00 0.00 0.00 87 1015.2
20240227022101 71 147 2.0 5.0 0.00 0.00 0.00 87 1015.1
20240227022003 71 18 2.0 5.0 0.00 0.00 0.00 87 1015.1
20240227021903 71 59 2.0 9.0 0.00 0.00 0.00 87 1015.2
20240227021802 71 171 2.0 9.0 0.00 0.00 0.00 87 1015.1
20240227021704 71 190 2.0 9.0 0.00 0.00 0.00 87 1015.2
20240227021603 71 69 2.0 9.0 0.00 0.00 0.00 87 1015.0
20240227021504 71 117 2.0 9.0 0.00 0.00 0.00 87 1015.1
20240227021402 71 152 3.0 9.0 0.00 0.00 0.00 87 1015.1
20240227021302 71 189 2.0 9.0 0.00 0.00 0.00 87 1015.0
20240227021202 71 182 2.0 9.0 0.00 0.00 0.00 87 1015.0
20240227021103 71 180 4.0 9.0 0.00 0.00 0.00 87 1015.0
20240227021003 71 214 3.0 9.0 0.00 0.00 0.00 87 1014.9
20240227020902 71 30 3.0 9.0 0.00 0.00 0.00 87 1015.0
20240227020802 71 298 2.0 9.0 0.00 0.00 0.00 87 1014.9
20240227020703 71 0 2.0 9.0 0.00 0.00 0.00 87 1014.9
20240227020603 71 169 2.0 9.0 0.00 0.00 0.00 87 1014.9
20240227020502 71 128 3.0 9.0 0.00 0.00 0.00 87 1014.9
20240227020402 71 171 3.0 9.0 0.00 0.00 0.00 87 1015.0
20240227020303 71 240 3.0 9.0 0.00 0.00 0.00 87 1015.0
20240227020202 71 165 3.0 7.0 0.00 0.00 0.00 87 1015.0
20240227020103 71 180 2.0 7.0 0.00 0.00 0.00 87 1015.0
20240227020003 71 68 2.0 7.0 0.00 0.00 0.00 87 1015.0
20240227015902 71 127 3.0 7.0 0.00 0.00 0.00 87 1015.0
20240227015802 71 178 2.0 7.0 0.00 0.00 0.00 87 1015.0
20240227015702 71 258 2.0 7.0 0.00 0.00 0.00 87 1015.0
20240227015602 71 217 3.0 7.0 0.00 0.00 0.00 87 1015.0
20240227015503 71 120 3.0 7.0 0.00 0.00 0.00 87 1014.9
20240227015402 71 104 2.0 6.0 0.00 0.00 0.00 87 1015.0
20240227015307 71 135 2.0 6.0 0.00 0.00 0.00 87 1015.0
20240227015202 71 148 2.0 6.0 0.00 0.00 0.00 87 1015.0
20240227015104 71 171 2.0 6.0 0.00 0.00 0.00 87 1014.9
20240227015003 71 210 2.0 6.0 0.00 0.00 0.00 87 1015.0
20240227014902 71 144 2.0 6.0 0.00 0.00 0.00 87 1014.9
20240227014801 71 110 2.0 6.0 0.00 0.00 0.00 87 1014.8
20240227014702 71 120 1.0 6.0 0.00 0.00 0.00 87 1014.9
20240227014603 71 125 2.0 6.0 0.00 0.00 0.00 87 1014.9
20240227014502 71 125 2.0 6.0 0.00 0.00 0.00 86 1015.0
20240227014403 71 154 2.0 5.0 0.00 0.00 0.00 86 1015.0
20240227014303 71 176 2.0 5.0 0.00 0.00 0.00 86 1015.1
20240227014203 71 137 2.0 5.0 0.00 0.00 0.00 86 1015.1
20240227014103 71 149 1.0 5.0 0.00 0.00 0.00 86 1015.1
20240227014001 71 87 1.0 11.0 0.00 0.00 0.00 86 1015.1
20240227013903 71 87 2.0 11.0 0.00 0.00 0.00 86 1015.1
20240227013802 71 145 1.0 11.0 0.00 0.00 0.00 86 1015.1
20240227013702 71 120 2.0 11.0 0.00 0.00 0.00 85 1015.1
20240227013603 71 75 2.0 11.0 0.00 0.00 0.00 85 1015.1
20240227013504 71 100 2.0 11.0 0.00 0.00 0.00 85 1015.0
20240227013402 71 179 2.0 11.0 0.00 0.00 0.00 85 1015.1
20240227013303 71 185 2.0 11.0 0.00 0.00 0.00 85 1015.0
20240227013202 71 130 3.0 11.0 0.00 0.00 0.00 85 1015.0
20240227013102 71 123 3.0 11.0 0.00 0.00 0.00 85 1015.0
20240227013003 71 190 3.0 6.0 0.00 0.00 0.00 85 1015.1
20240227012904 72 145 3.0 6.0 0.00 0.00 0.00 85 1014.9
20240227012804 72 127 2.0 5.0 0.00 0.00 0.00 84 1015.0
20240227012702 72 125 1.0 5.0 0.00 0.00 0.00 84 1015.0
20240227012604 72 141 0.0 5.0 0.00 0.00 0.00 84 1015.0
20240227012502 72 141 0.0 5.0 0.00 0.00 0.00 84 1015.0
20240227012402 72 141 1.0 5.0 0.00 0.00 0.00 84 1015.0
20240227012305 72 141 2.0 5.0 0.00 0.00 0.00 84 1014.9
20240227012203 72 144 2.0 5.0 0.00 0.00 0.00 83 1015.0
20240227012102 72 144 3.0 5.0 0.00 0.00 0.00 84 1015.0
20240227012005 72 145 3.0 4.0 0.00 0.00 0.00 83 1015.0
20240227011903 72 154 2.0 4.0 0.00 0.00 0.00 83 1014.9
20240227011802 72 7 2.0 4.0 0.00 0.00 0.00 83 1014.9
20240227011704 72 176 1.0 4.0 0.00 0.00 0.00 83 1015.0
20240227011602 72 151 1.0 4.0 0.00 0.00 0.00 83 1015.0
20240227011502 73 151 2.0 4.0 0.00 0.00 0.00 83 1015.0
20240227011404 72 103 2.0 4.0 0.00 0.00 0.00 83 1015.0
20240227011302 73 154 2.0 4.0 0.00 0.00 0.00 83 1015.0
20240227011204 73 157 2.0 4.0 0.00 0.00 0.00 82 1014.9
20240227011104 73 93 3.0 4.0 0.00 0.00 0.00 82 1014.9
20240227011004 73 130 2.0 4.0 0.00 0.00 0.00 82 1014.9
20240227010901 73 109 2.0 3.0 0.00 0.00 0.00 82 1014.9
20240227010802 73 102 1.0 3.0 0.00 0.00 0.00 82 1014.9
20240227010702 73 102 2.0 4.0 0.00 0.00 0.00 82 1014.9
20240227010603 73 48 1.0 4.0 0.00 0.00 0.00 82 1014.9
20240227010504 73 116 1.0 4.0 0.00 0.00 0.00 81 1014.8
20240227010402 73 99 1.0 4.0 0.00 0.00 0.00 81 1014.8
20240227010302 73 185 1.0 4.0 0.00 0.00 0.00 81 1014.9
20240227010203 73 185 1.0 4.0 0.00 0.00 0.00 81 1014.8
20240227010103 73 185 2.0 4.0 0.00 0.00 0.00 81 1014.9
20240227010003 73 171 1.0 6.0 0.00 0.00 0.00 81 1014.8
20240227005904 73 79 1.0 6.0 0.00 0.00 0.00 81 1014.9
20240227005802 73 114 1.0 6.0 0.00 0.00 0.00 81 1014.9
20240227005702 73 114 1.0 6.0 0.00 0.00 0.00 81 1015.0
20240227005602 73 96 1.0 6.0 0.00 0.00 0.00 81 1014.9
20240227005503 73 94 1.0 6.0 0.00 0.00 0.00 82 1014.9
20240227005403 73 326 2.0 6.0 0.00 0.00 0.00 82 1014.9
20240227005302 73 158 2.0 6.0 0.00 0.00 0.00 82 1014.9
20240227005202 73 302 2.0 6.0 0.00 0.00 0.00 82 1014.9
20240227005103 73 303 2.0 6.0 0.00 0.00 0.00 81 1014.9
20240227005002 73 86 2.0 5.0 0.00 0.00 0.00 81 1014.7
20240227004902 73 31 1.0 5.0 0.00 0.00 0.00 81 1014.8
20240227004803 73 16 1.0 5.0 0.00 0.00 0.00 81 1014.8
20240227004702 73 118 2.0 5.0 0.00 0.00 0.00 81 1014.8
20240227004603 73 118 2.0 5.0 0.00 0.00 0.00 81 1014.8
20240227004505 73 86 2.0 4.0 0.00 0.00 0.00 81 1014.8
20240227004403 74 192 2.0 4.0 0.00 0.00 0.00 81 1014.8
20240227004303 73 140 1.0 4.0 0.00 0.00 0.00 81 1014.7
20240227004202 74 197 1.0 4.0 0.00 0.00 0.00 80 1014.8
20240227004102 74 197 2.0 4.0 0.00 0.00 0.00 80 1014.8
20240227004003 74 197 2.0 4.0 0.00 0.00 0.00 80 1014.8
20240227003901 74 161 1.0 4.0 0.00 0.00 0.00 80 1014.9
20240227003803 74 162 0.0 4.0 0.00 0.00 0.00 80 1015.0
20240227003703 74 162 1.0 4.0 0.00 0.00 0.00 80 1015.0
20240227003602 74 162 1.0 5.0 0.00 0.00 0.00 80 1014.9
20240227003503 74 176 2.0 5.0 0.00 0.00 0.00 80 1014.9
20240227003402 74 192 2.0 7.0 0.00 0.00 0.00 80 1014.9
20240227003304 74 111 2.0 7.0 0.00 0.00 0.00 80 1014.8
20240227003202 74 110 2.0 7.0 0.00 0.00 0.00 80 1014.9
20240227003103 74 337 2.0 10.0 0.00 0.00 0.00 80 1014.9
20240227003004 74 140 1.0 10.0 0.00 0.00 0.00 79 1014.8
20240227002903 74 142 1.0 10.0 0.00 0.00 0.00 79 1014.7
20240227002802 74 158 2.0 10.0 0.00 0.00 0.00 80 1014.8
20240227002703 74 145 3.0 10.0 0.00 0.00 0.00 80 1014.7
20240227002602 74 180 4.0 10.0 0.00 0.00 0.00 80 1014.9
20240227002504 74 193 3.0 10.0 0.00 0.00 0.00 80 1014.8
20240227002402 74 171 3.0 10.0 0.00 0.00 0.00 80 1014.9
20240227002305 74 144 3.0 10.0 0.00 0.00 0.00 80 1014.8
20240227002203 74 142 3.0 10.0 0.00 0.00 0.00 80 1014.9
20240227002103 74 63 3.0 9.0 0.00 0.00 0.00 80 1014.9
20240227002004 74 209 3.0 9.0 0.00 0.00 0.00 80 1014.9
20240227001902 75 121 2.0 6.0 0.00 0.00 0.00 80 1014.9
20240227001804 75 121 3.0 6.0 0.00 0.00 0.00 80 1014.8
20240227001704 75 121 3.0 6.0 0.00 0.00 0.00 80 1014.8
20240227001602 75 176 2.0 4.0 0.00 0.00 0.00 80 1014.7
20240227001505 75 173 2.0 4.0 0.00 0.00 0.00 80 1014.7
20240227001404 75 202 2.0 4.0 0.00 0.00 0.00 80 1014.8
20240227001303 75 134 1.0 4.0 0.00 0.00 0.00 80 1014.8
20240227001202 75 172 1.0 4.0 0.00 0.00 0.00 80 1014.7
20240227001103 75 172 1.0 6.0 0.00 0.00 0.00 80 1014.7
20240227001004 75 176 1.0 6.0 0.00 0.00 0.00 79 1014.8
20240227000902 75 165 2.0 6.0 0.00 0.00 0.00 79 1014.7
20240227000803 75 165 2.0 6.0 0.00 0.00 0.00 79 1014.7
20240227000703 75 90 1.0 7.0 0.00 0.00 0.00 79 1014.8
20240227000602 75 90 1.0 7.0 0.00 0.00 0.00 79 1014.7
20240227000505 75 134 2.0 7.0 0.00 0.00 0.00 79 1014.7
20240227000403 76 135 2.0 7.0 0.00 0.00 0.00 79 1014.7
20240227000303 76 125 2.0 7.0 0.00 0.00 0.00 79 1014.6
20240227000203 76 137 2.0 7.0 0.00 0.00 0.00 79 1014.7
20240227000102 76 121 1.0 7.0 0.00 0.00 0.00 79 1014.7
20240227000003 76 123 2.0 7.0 0.00 0.00 0.00 79 1014.7
20240226235903 76 123 2.0 7.0 0.00 0.00 0.00 79 1014.8
20240226235803 76 128 2.0 9.0 0.00 0.00 0.00 79 1014.8
20240226235704 76 238 2.0 9.0 0.00 0.00 0.00 79 1014.7
20240226235602 76 71 3.0 9.0 0.00 0.00 0.00 78 1014.8
20240226235504 76 151 4.0 9.0 0.00 0.00 0.00 78 1014.7
20240226235402 76 110 3.0 9.0 0.00 0.00 0.00 78 1014.7
20240226235305 76 155 2.0 9.0 0.00 0.00 0.00 78 1014.7
20240226235202 76 240 1.0 9.0 0.00 0.00 0.00 78 1014.7
20240226235101 76 197 2.0 9.0 0.00 0.00 0.00 78 1014.8
20240226235002 76 196 4.0 9.0 0.00 0.00 0.00 78 1014.8
20240226234903 76 171 4.0 9.0 0.00 0.00 0.00 78 1014.7
20240226234804 76 207 2.0 6.0 0.00 0.00 0.00 77 1014.7
20240226234704 76 207 2.0 6.0 0.00 0.00 0.00 77 1014.8
20240226234604 76 207 2.0 6.0 0.00 0.00 0.00 77 1014.7
20240226234504 76 137 2.0 6.0 0.00 0.00 0.00 77 1014.7
20240226234403 77 165 2.0 6.0 0.00 0.00 0.00 77 1014.7
20240226234303 77 152 1.0 6.0 0.00 0.00 0.00 77 1014.7
20240226234202 77 137 1.0 6.0 0.00 0.00 0.00 77 1014.7
20240226234101 77 135 2.0 6.0 0.00 0.00 0.00 77 1014.6
20240226234004 77 147 4.0 6.0 0.00 0.00 0.00 77 1014.6
20240226233902 77 145 4.0 6.0 0.00 0.00 0.00 77 1014.6
20240226233803 77 125 3.0 5.0 0.00 0.00 0.00 77 1014.6
20240226233702 77 113 2.0 5.0 0.00 0.00 0.00 77 1014.6
20240226233605 77 196 2.0 4.0 0.00 0.00 0.00 77 1014.8
20240226233502 77 140 2.0 4.0 0.00 0.00 0.00 77 1014.8
20240226233402 77 248 2.0 9.0 0.00 0.00 0.00 77 1014.6
20240226233304 77 169 1.0 9.0 0.00 0.00 0.00 77 1014.7
20240226233203 77 173 1.0 9.0 0.00 0.00 0.00 77 1014.7
20240226233102 77 173 1.0 9.0 0.00 0.00 0.00 77 1014.7
20240226233004 77 185 1.0 9.0 0.00 0.00 0.00 77 1014.8
20240226232902 77 120 1.0 9.0 0.00 0.00 0.00 76 1014.7
20240226232802 77 148 1.0 9.0 0.00 0.00 0.00 76 1014.7
20240226232701 77 155 1.0 9.0 0.00 0.00 0.00 76 1014.8
20240226232603 77 155 3.0 9.0 0.00 0.00 0.00 76 1014.8
20240226232504 77 161 3.0 9.0 0.00 0.00 0.00 76 1014.7
20240226232403 78 120 3.0 6.0 0.00 0.00 0.00 76 1014.9
20240226232306 78 157 3.0 6.0 0.00 0.00 0.00 76 1014.8
20240226232204 78 233 3.0 6.0 0.00 0.00 0.00 76 1014.8
20240226232102 78 130 3.0 5.0 0.00 0.00 0.00 76 1014.7
20240226232002 78 111 2.0 5.0 0.00 0.00 0.00 76 1014.8
20240226231903 78 121 3.0 6.0 0.00 0.00 0.00 76 1014.7
20240226231802 78 196 3.0 7.0 0.00 0.00 0.00 76 1014.7
20240226231702 78 179 2.0 7.0 0.00 0.00 0.00 76 1014.6
20240226231603 78 142 1.0 7.0 0.00 0.00 0.00 76 1014.7
20240226231504 78 145 2.0 7.0 0.00 0.00 0.00 76 1014.7
20240226231402 78 145 2.0 7.0 0.00 0.00 0.00 76 1014.7
20240226231302 78 128 2.0 7.0 0.00 0.00 0.00 76 1014.8
20240226231203 78 128 2.0 7.0 0.00 0.00 0.00 76 1014.8
20240226231101 78 103 2.0 7.0 0.00 0.00 0.00 76 1014.7
20240226231003 78 154 3.0 7.0 0.00 0.00 0.00 76 1014.7
20240226230903 78 176 3.0 7.0 0.00 0.00 0.00 76 1014.7
20240226230803 78 100 2.0 7.0 0.00 0.00 0.00 76 1014.7
20240226230702 78 240 1.0 6.0 0.00 0.00 0.00 75 1014.8
20240226230601 78 248 2.0 6.0 0.00 0.00 0.00 75 1014.8
20240226230503 78 248 3.0 6.0 0.00 0.00 0.00 75 1014.7
20240226230402 78 140 2.0 5.0 0.00 0.00 0.00 75 1014.7
20240226230302 78 188 2.0 5.0 0.00 0.00 0.00 75 1014.8
20240226230204 78 55 1.0 5.0 0.00 0.00 0.00 76 1014.7
20240226230102 78 118 1.0 5.0 0.00 0.00 0.00 75 1014.6
20240226230002 78 120 3.0 5.0 0.00 0.00 0.00 75 1014.6
20240226225903 78 171 2.0 5.0 0.00 0.00 0.00 75 1014.6
20240226225802 78 128 1.0 5.0 0.00 0.00 0.00 75 1014.6
20240226225703 78 131 2.0 5.0 0.00 0.00 0.00 75 1014.6
20240226225602 79 188 2.0 5.0 0.00 0.00 0.00 75 1014.5
20240226225505 79 221 2.0 5.0 0.00 0.00 0.00 75 1014.6
20240226225402 79 164 2.0 5.0 0.00 0.00 0.00 74 1014.6
20240226225305 79 147 2.0 7.0 0.00 0.00 0.00 74 1014.6
20240226225201 79 171 2.0 7.0 0.00 0.00 0.00 74 1014.6
20240226225103 79 106 2.0 7.0 0.00 0.00 0.00 74 1014.7
20240226225002 79 173 1.0 7.0 0.00 0.00 0.00 74 1014.6
20240226224902 79 172 1.0 7.0 0.00 0.00 0.00 74 1014.6
20240226224802 79 172 1.0 7.0 0.00 0.00 0.00 74 1014.7
20240226224702 79 172 2.0 9.0 0.00 0.00 0.00 74 1014.7
20240226224601 79 233 2.0 9.0 0.00 0.00 0.00 74 1014.6
20240226224503 79 272 3.0 9.0 0.00 0.00 0.00 74 1014.6
20240226224401 79 149 3.0 9.0 0.00 0.00 0.00 74 1014.6
20240226224303 79 109 2.0 9.0 0.00 0.00 0.00 74 1014.6
20240226224202 79 154 2.0 9.0 0.00 0.00 0.00 74 1014.6
20240226224103 79 133 1.0 9.0 0.00 0.00 0.00 74 1014.6
20240226224003 79 137 2.0 9.0 0.00 0.00 0.00 74 1014.6
20240226223902 79 141 3.0 9.0 0.00 0.00 0.00 74 1014.6
20240226223803 79 127 4.0 9.0 0.00 0.00 0.00 73 1014.6
20240226223703 79 135 3.0 7.0 0.00 0.00 0.00 73 1014.7
20240226223603 80 113 2.0 7.0 0.00 0.00 0.00 73 1014.7
20240226223503 80 137 2.0 7.0 0.00 0.00 0.00 73 1014.7
20240226223404 80 171 1.0 7.0 0.00 0.00 0.00 73 1014.8
20240226223301 80 274 1.0 7.0 0.00 0.00 0.00 73 1014.7
20240226223202 80 274 1.0 7.0 0.00 0.00 0.00 73 1014.7
20240226223104 80 274 2.0 7.0 0.00 0.00 0.00 72 1014.7
20240226223002 80 274 4.0 7.0 0.00 0.00 0.00 72 1014.7
20240226222902 80 295 3.0 7.0 0.00 0.00 0.00 71 1014.7
20240226222804 80 111 1.0 7.0 0.00 0.00 0.00 71 1014.8
20240226222702 81 140 3.0 7.0 0.00 0.00 0.00 71 1014.7
20240226222602 81 186 3.0 7.0 0.00 0.00 0.00 71 1014.7
20240226222502 81 228 1.0 6.0 0.00 0.00 0.00 71 1014.6
20240226222404 80 228 2.0 6.0 0.00 0.00 0.00 71 1014.7
20240226222305 80 228 2.0 7.0 0.00 0.00 0.00 71 1014.6
20240226222203 80 254 3.0 9.0 0.00 0.00 0.00 71 1014.6
20240226222105 80 235 3.0 9.0 0.00 0.00 0.00 71 1014.5
20240226222003 80 189 3.0 9.0 0.00 0.00 0.00 70 1014.6
20240226221903 81 237 2.0 9.0 0.00 0.00 0.00 70 1014.7
20240226221802 81 135 1.0 9.0 0.00 0.00 0.00 70 1014.6
20240226221703 80 152 1.0 9.0 0.00 0.00 0.00 70 1014.6
20240226221603 80 152 2.0 10.0 0.00 0.00 0.00 70 1014.6
20240226221501 81 158 4.0 10.0 0.00 0.00 0.00 70 1014.6
20240226221403 81 337 5.0 10.0 0.00 0.00 0.00 70 1014.6
20240226221303 81 250 4.0 10.0 0.00 0.00 0.00 70 1014.6
20240226221202 81 109 3.0 10.0 0.00 0.00 0.00 70 1014.7
20240226221104 81 278 3.0 10.0 0.00 0.00 0.00 70 1014.6
20240226221004 81 227 3.0 10.0 0.00 0.00 0.00 70 1014.6
20240226220903 81 269 4.0 10.0 0.00 0.00 0.00 71 1014.7
20240226220801 81 186 4.0 10.0 0.00 0.00 0.00 70 1014.7
20240226220702 81 274 4.0 10.0 0.00 0.00 0.00 71 1014.6
20240226220602 81 214 4.0 9.0 0.00 0.00 0.00 71 1014.7
20240226220502 81 209 4.0 9.0 0.00 0.00 0.00 71 1014.7
20240226220403 81 148 2.0 9.0 0.00 0.00 0.00 71 1014.7
20240226220302 81 189 2.0 12.0 0.00 0.00 0.00 71 1014.8
20240226220202 81 248 3.0 12.0 0.00 0.00 0.00 71 1014.8
20240226220102 81 290 4.0 12.0 0.00 0.00 0.00 70 1014.8
20240226220004 81 175 3.0 12.0 0.00 0.00 0.00 70 1014.9
20240226215902 81 240 2.0 12.0 0.00 0.00 0.00 70 1014.8
20240226215802 81 292 3.0 12.0 0.00 0.00 0.00 70 1014.9
20240226215703 81 282 5.0 12.0 0.00 0.00 0.00 69 1014.8
20240226215602 81 99 5.0 12.0 0.00 0.00 0.00 70 1014.9
20240226215503 81 266 5.0 12.0 0.00 0.00 0.00 70 1014.9
20240226215403 81 271 5.0 12.0 0.00 0.00 0.00 70 1014.7
20240226215306 81 192 3.0 5.0 0.00 0.00 0.00 70 1014.8
20240226215204 81 173 2.0 5.0 0.00 0.00 0.00 70 1014.9
20240226215102 81 172 2.0 7.0 0.00 0.00 0.00 70 1014.9
20240226215005 81 124 1.0 10.0 0.00 0.00 0.00 70 1014.8
20240226214902 81 124 2.0 10.0 0.00 0.00 0.00 70 1014.8
20240226214803 81 212 2.0 10.0 0.00 0.00 0.00 70 1014.9
20240226214703 81 155 2.0 10.0 0.00 0.00 0.00 71 1014.8
20240226214602 81 305 3.0 10.0 0.00 0.00 0.00 70 1014.9
20240226214502 81 305 2.0 10.0 0.00 0.00 0.00 70 1014.9
20240226214402 81 161 2.0 10.0 0.00 0.00 0.00 70 1014.9
20240226214302 81 49 2.0 10.0 0.00 0.00 0.00 70 1014.9
20240226214203 81 52 4.0 10.0 0.00 0.00 0.00 70 1015.0
20240226214101 81 196 4.0 10.0 0.00 0.00 0.00 70 1014.9
20240226214005 81 158 2.0 9.0 0.00 0.00 0.00 71 1014.9
20240226213904 81 137 1.0 11.0 0.00 0.00 0.00 71 1015.0
20240226213802 81 97 1.0 11.0 0.00 0.00 0.00 71 1015.1
20240226213701 81 78 3.0 11.0 0.00 0.00 0.00 70 1015.0
20240226213602 81 152 4.0 11.0 0.00 0.00 0.00 70 1015.0
20240226213501 81 203 3.0 11.0 0.00 0.00 0.00 70 1015.1
20240226213402 81 165 2.0 11.0 0.00 0.00 0.00 70 1015.0
20240226213303 81 138 2.0 11.0 0.00 0.00 0.00 70 1015.1
20240226213203 81 228 4.0 11.0 0.00 0.00 0.00 69 1015.1
20240226213102 81 217 4.0 11.0 0.00 0.00 0.00 69 1015.1
20240226213003 81 288 3.0 11.0 0.00 0.00 0.00 69 1014.9
20240226212903 81 121 1.0 6.0 0.00 0.00 0.00 69 1015.0
20240226212803 81 90 1.0 6.0 0.00 0.00 0.00 69 1015.0
20240226212702 81 90 2.0 6.0 0.00 0.00 0.00 69 1015.0
20240226212603 82 120 4.0 6.0 0.00 0.00 0.00 69 1015.1
20240226212502 82 121 3.0 6.0 0.00 0.00 0.00 69 1015.0
20240226212402 82 123 2.0 6.0 0.00 0.00 0.00 69 1015.0
20240226212306 82 148 3.0 6.0 0.00 0.00 0.00 69 1015.0
20240226212202 82 166 3.0 6.0 0.00 0.00 0.00 68 1015.1
20240226212101 82 289 3.0 6.0 0.00 0.00 0.00 69 1015.1
20240226212004 0 0.0 3.0 0.00 0.00 0.00 1015.2
20240226211903 0 0.0 4.0 0.00 0.00 0.00 1015.2
20240226211732 0 0.0 4.0 0.00 0.00 0.00 1015.2
20240226211632 0 0.0 6.0 0.00 0.00 0.00 1015.2
20240226211532 81 130 2.0 6.0 0.00 0.00 0.00 69 1015.2
20240226211432 81 130 2.0 6.0 0.00 0.00 0.00 69 1015.3
20240226211332 81 130 2.0 6.0 0.00 0.00 0.00 69 1015.3
20240226211232 81 130 2.0 6.0 0.00 0.00 0.00 69 1015.2
20240226211126 81 130 2.0 6.0 0.00 0.00 0.00 69 1015.4
20240226211026 81 120 2.0 6.0 0.00 0.00 0.00 69 1015.4
20240226210923 81 161 1.0 6.0 0.00 0.00 0.00 70 1015.4
20240226210822 81 141 2.0 6.0 0.00 0.00 0.00 70 1015.4
20240226210722 81 204 2.0 6.0 0.00 0.00 0.00 69 1015.4
20240226210619 82 238 3.0 5.0 0.00 0.00 0.00 69 1015.4
20240226210517 82 104 3.0 5.0 0.00 0.00 0.00 70 1015.4
20240226210416 82 130 2.0 5.0 0.00 0.00 0.00 70 1015.4
20240226210316 82 234 3.0 5.0 0.00 0.00 0.00 69 1015.4
20240226210213 82 300 2.0 5.0 0.00 0.00 0.00 69 1015.4
20240226210113 82 110 1.0 5.0 0.00 0.00 0.00 70 1015.4
20240226210015 82 51 1.0 9.0 0.00 0.00 0.00 70 1015.3
20240226205913 82 51 1.0 9.0 0.00 0.00 0.00 70 1015.4
20240226205813 82 72 2.0 9.0 0.00 0.00 0.00 69 1015.6
20240226205713 82 75 2.0 9.0 0.00 0.00 0.00 69 1015.5
20240226205615 82 135 3.0 9.0 0.00 0.00 0.00 69 1015.6
20240226205513 82 283 2.0 9.0 0.00 0.00 0.00 69 1015.6
20240226205414 82 240 2.0 9.0 0.00 0.00 0.00 70 1015.6
20240226205314 81 295 2.0 9.0 0.00 0.00 0.00 70 1015.6
20240226205214 81 302 4.0 9.0 0.00 0.00 0.00 69 1015.6
20240226205113 81 272 4.0 9.0 0.00 0.00 0.00 70 1015.6
20240226205013 81 286 3.0 9.0 0.00 0.00 0.00 70 1015.7
20240226204914 81 237 3.0 9.0 0.00 0.00 0.00 70 1015.6
20240226204814 81 237 3.0 9.0 0.00 0.00 0.00 70 1015.7
20240226204713 81 295 3.0 7.0 0.00 0.00 0.00 70 1015.7
20240226204615 81 238 4.0 7.0 0.00 0.00 0.00 70 1015.6
20240226204514 81 275 4.0 7.0 0.00 0.00 0.00 69 1015.7
20240226204413 81 212 3.0 7.0 0.00 0.00 0.00 70 1015.7
20240226204314 81 235 2.0 7.0 0.00 0.00 0.00 70 1015.8
20240226204215 81 282 2.0 7.0 0.00 0.00 0.00 71 1015.7
20240226204114 81 65 2.0 7.0 0.00 0.00 0.00 70 1015.8
20240226204013 81 63 3.0 7.0 0.00 0.00 0.00 70 1015.7
20240226203914 81 245 4.0 7.0 0.00 0.00 0.00 70 1015.8
20240226203813 81 128 3.0 7.0 0.00 0.00 0.00 70 1015.8
20240226203714 81 116 3.0 7.0 0.00 0.00 0.00 70 1015.9
20240226203614 81 219 4.0 7.0 0.00 0.00 0.00 70 1015.9
20240226203515 81 255 3.0 7.0 0.00 0.00 0.00 70 1015.9
20240226203413 81 152 2.0 6.0 0.00 0.00 0.00 70 1016.0
20240226203313 81 161 2.0 6.0 0.00 0.00 0.00 70 1015.9
20240226203214 81 125 2.0 6.0 0.00 0.00 0.00 70 1015.9
20240226203113 81 264 3.0 7.0 0.00 0.00 0.00 70 1015.9
20240226203014 81 220 4.0 12.0 0.00 0.00 0.00 70 1015.9
20240226202914 81 13 4.0 12.0 0.00 0.00 0.00 70 1015.8
20240226202815 81 223 4.0 12.0 0.00 0.00 0.00 70 1015.8
20240226202714 81 306 3.0 12.0 0.00 0.00 0.00 70 1015.8
20240226202613 81 269 3.0 12.0 0.00 0.00 0.00 70 1015.8
20240226202515 80 165 2.0 12.0 0.00 0.00 0.00 70 1015.8
20240226202414 81 226 2.0 12.0 0.00 0.00 0.00 70 1015.8
20240226202314 81 197 3.0 12.0 0.00 0.00 0.00 70 1015.8
20240226202214 81 169 6.0 12.0 0.00 0.00 0.00 70 1015.9
20240226202113 81 131 6.0 12.0 0.00 0.00 0.00 70 1016.0
20240226202013 81 292 4.0 12.0 0.00 0.00 0.00 71 1016.0
20240226201912 81 264 4.0 12.0 0.00 0.00 0.00 70 1016.0
20240226201814 81 192 2.0 12.0 0.00 0.00 0.00 70 1016.0
20240226201713 80 200 2.0 12.0 0.00 0.00 0.00 71 1016.0
20240226201614 80 0 2.0 12.0 0.00 0.00 0.00 71 1016.0
20240226201514 80 151 2.0 12.0 0.00 0.00 0.00 71 1016.0
20240226201413 80 125 3.0 12.0 0.00 0.00 0.00 72 1016.1
20240226201313 80 134 4.0 12.0 0.00 0.00 0.00 71 1016.1
20240226201213 80 118 4.0 12.0 0.00 0.00 0.00 71 1016.1
20240226201113 80 330 4.0 12.0 0.00 0.00 0.00 71 1016.1
20240226201013 80 221 2.0 11.0 0.00 0.00 0.00 71 1016.2
20240226200912 80 107 3.0 11.0 0.00 0.00 0.00 71 1016.1
20240226200812 80 10 3.0 11.0 0.00 0.00 0.00 72 1016.2
20240226200713 80 355 4.0 11.0 0.00 0.00 0.00 72 1016.3
20240226200613 80 154 4.0 11.0 0.00 0.00 0.00 71 1016.3
20240226200513 80 227 3.0 11.0 0.00 0.00 0.00 72 1016.2
20240226200414 80 175 4.0 11.0 0.00 0.00 0.00 73 1016.2
20240226200312 80 162 4.0 11.0 0.00 0.00 0.00 72 1016.2
20240226200212 80 233 3.0 9.0 0.00 0.00 0.00 72 1016.2
20240226200114 80 23 3.0 9.0 0.00 0.00 0.00 72 1016.2
20240226200013 80 147 4.0 9.0 0.00 0.00 0.00 72 1016.3
20240226195912 80 173 3.0 9.0 0.00 0.00 0.00 72 1016.3
20240226195813 80 135 3.0 9.0 0.00 0.00 0.00 72 1016.2
20240226195713 80 158 4.0 11.0 0.00 0.00 0.00 71 1016.3
20240226195612 80 161 3.0 12.0 0.00 0.00 0.00 71 1016.5
20240226195511 80 140 2.0 12.0 0.00 0.00 0.00 72 1016.4
20240226195413 80 231 2.0 12.0 0.00 0.00 0.00 73 1016.4
20240226195312 80 231 2.0 12.0 0.00 0.00 0.00 73 1016.4
20240226195212 80 142 2.0 12.0 0.00 0.00 0.00 72 1016.5
20240226195112 80 176 4.0 12.0 0.00 0.00 0.00 72 1016.5
20240226195014 80 175 4.0 12.0 0.00 0.00 0.00 72 1016.5
20240226194912 80 210 4.0 12.0 0.00 0.00 0.00 73 1016.6
20240226194812 80 0 5.0 12.0 0.00 0.00 0.00 72 1016.6
20240226194713 80 299 4.0 10.0 0.00 0.00 0.00 72 1016.6
20240226194612 80 124 2.0 9.0 0.00 0.00 0.00 72 1016.6
20240226194512 80 216 2.0 9.0 0.00 0.00 0.00 72 1016.7
20240226194412 80 183 4.0 13.0 0.00 0.00 0.00 72 1016.8
20240226194313 80 272 4.0 13.0 0.00 0.00 0.00 72 1016.7
20240226194211 80 178 3.0 13.0 0.00 0.00 0.00 73 1016.8
20240226194111 80 266 3.0 13.0 0.00 0.00 0.00 73 1016.9
20240226194013 79 110 2.0 13.0 0.00 0.00 0.00 73 1016.9
20240226193911 79 348 3.0 13.0 0.00 0.00 0.00 74 1017.0
20240226193813 79 182 4.0 13.0 0.00 0.00 0.00 73 1017.1
20240226193713 79 281 4.0 13.0 0.00 0.00 0.00 73 1017.0
20240226193613 79 278 6.0 13.0 0.00 0.00 0.00 72 1017.0
20240226193511 79 281 7.0 13.0 0.00 0.00 0.00 72 1017.0
20240226193411 80 282 6.0 13.0 0.00 0.00 0.00 73 1017.1
20240226193313 79 276 4.0 13.0 0.00 0.00 0.00 73 1017.1
20240226193212 79 264 4.0 13.0 0.00 0.00 0.00 73 1017.2
20240226193111 80 123 4.0 13.0 0.00 0.00 0.00 72 1017.1
20240226193012 80 141 3.0 10.0 0.00 0.00 0.00 73 1017.1
20240226192913 80 255 3.0 12.0 0.00 0.00 0.00 73 1017.1
20240226192811 80 111 3.0 12.0 0.00 0.00 0.00 73 1017.2
20240226192711 79 175 2.0 12.0 0.00 0.00 0.00 73 1017.2
20240226192613 80 135 3.0 12.0 0.00 0.00 0.00 73 1017.2
20240226192512 80 240 4.0 12.0 0.00 0.00 0.00 73 1017.2
20240226192411 80 265 4.0 12.0 0.00 0.00 0.00 73 1017.3
20240226192312 79 254 3.0 13.0 0.00 0.00 0.00 74 1017.3
20240226192211 79 237 3.0 13.0 0.00 0.00 0.00 74 1017.4
20240226192111 79 213 6.0 13.0 0.00 0.00 0.00 74 1017.4
20240226192011 79 258 6.0 13.0 0.00 0.00 0.00 73 1017.4
20240226191912 79 206 4.0 13.0 0.00 0.00 0.00 73 1017.4
20240226191812 79 283 3.0 13.0 0.00 0.00 0.00 75 1017.3
20240226191711 79 299 3.0 13.0 0.00 0.00 0.00 74 1017.6
20240226191612 79 238 4.0 13.0 0.00 0.00 0.00 74 1017.5
20240226191511 79 290 5.0 13.0 0.00 0.00 0.00 74 1017.5
20240226191411 79 295 6.0 13.0 0.00 0.00 0.00 74 1017.5
20240226191311 79 255 5.0 10.0 0.00 0.00 0.00 74 1017.6
20240226191212 79 314 3.0 10.0 0.00 0.00 0.00 75 1017.5
20240226191112 79 62 3.0 10.0 0.00 0.00 0.00 75 1017.6
20240226191012 79 100 3.0 10.0 0.00 0.00 0.00 74 1017.7
20240226190913 79 117 4.0 10.0 0.00 0.00 0.00 74 1017.7
20240226190812 79 117 4.0 10.0 0.00 0.00 0.00 74 1017.7
20240226190711 79 206 2.0 9.0 0.00 0.00 0.00 75 1017.7
20240226190611 78 100 1.0 9.0 0.00 0.00 0.00 75 1017.7
20240226190512 78 102 1.0 9.0 0.00 0.00 0.00 75 1017.7
20240226190412 78 0 2.0 9.0 0.00 0.00 0.00 74 1017.8
20240226190312 78 207 4.0 10.0 0.00 0.00 0.00 75 1017.8
20240226190211 78 149 4.0 10.0 0.00 0.00 0.00 76 1017.8
20240226190112 78 162 3.0 10.0 0.00 0.00 0.00 76 1017.8
20240226190011 78 254 2.0 10.0 0.00 0.00 0.00 75 1017.9
20240226185911 78 121 4.0 10.0 0.00 0.00 0.00 75 1017.9
20240226185811 78 237 4.0 10.0 0.00 0.00 0.00 75 1017.9
20240226185711 78 93 4.0 10.0 0.00 0.00 0.00 75 1018.0
20240226185611 78 120 4.0 10.0 0.00 0.00 0.00 74 1017.9
20240226185512 78 204 3.0 10.0 0.00 0.00 0.00 74 1017.9
20240226185410 79 172 4.0 10.0 0.00 0.00 0.00 75 1018.0
20240226185311 78 275 3.0 7.0 0.00 0.00 0.00 75 1018.1
20240226185212 78 289 3.0 7.0 0.00 0.00 0.00 75 1018.0
20240226185112 78 312 3.0 7.0 0.00 0.00 0.00 75 1018.0
20240226185011 78 182 3.0 7.0 0.00 0.00 0.00 75 1018.0
20240226184910 78 259 4.0 7.0 0.00 0.00 0.00 75 1018.1
20240226184811 78 268 4.0 7.0 0.00 0.00 0.00 74 1018.1
20240226184710 79 319 4.0 9.0 0.00 0.00 0.00 75 1018.1
20240226184610 79 278 4.0 9.0 0.00 0.00 0.00 75 1018.1
20240226184510 79 276 3.0 9.0 0.00 0.00 0.00 75 1018.1
20240226184412 78 330 2.0 9.0 0.00 0.00 0.00 75 1018.2
20240226184310 79 228 3.0 9.0 0.00 0.00 0.00 75 1018.2
20240226184210 78 164 3.0 9.0 0.00 0.00 0.00 75 1018.3
20240226184112 79 234 3.0 9.0 0.00 0.00 0.00 76 1018.3
20240226184010 78 254 3.0 11.0 0.00 0.00 0.00 75 1018.3
20240226183910 78 200 2.0 11.0 0.00 0.00 0.00 75 1018.3
20240226183810 78 243 3.0 11.0 0.00 0.00 0.00 77 1018.3
20240226183712 78 307 3.0 11.0 0.00 0.00 0.00 77 1018.5
20240226183611 78 71 3.0 11.0 0.00 0.00 0.00 77 1018.5
20240226183510 77 190 3.0 11.0 0.00 0.00 0.00 78 1018.6
20240226183411 77 162 4.0 11.0 0.00 0.00 0.00 77 1018.6
20240226183312 77 264 4.0 11.0 0.00 0.00 0.00 77 1018.5
20240226183210 77 123 4.0 11.0 0.00 0.00 0.00 76 1018.5
20240226183110 77 295 5.0 11.0 0.00 0.00 0.00 76 1018.6
20240226183012 77 257 4.0 9.0 0.00 0.00 0.00 76 1018.7
20240226182910 77 212 3.0 9.0 0.00 0.00 0.00 77 1018.8
20240226182810 77 21 2.0 9.0 0.00 0.00 0.00 77 1018.6
20240226182711 77 295 4.0 9.0 0.00 0.00 0.00 77 1018.7
20240226182609 77 292 4.0 9.0 0.00 0.00 0.00 77 1018.7
20240226182510 77 265 4.0 6.0 0.00 0.00 0.00 77 1018.7
20240226182412 77 296 3.0 7.0 0.00 0.00 0.00 78 1018.7
20240226182311 77 255 2.0 9.0 0.00 0.00 0.00 78 1018.7
20240226182211 77 214 2.0 9.0 0.00 0.00 0.00 78 1018.8
20240226182111 77 214 3.0 9.0 0.00 0.00 0.00 78 1018.7
20240226182011 77 172 3.0 9.0 0.00 0.00 0.00 78 1018.7
20240226181911 77 250 3.0 9.0 0.00 0.00 0.00 78 1018.8
20240226181810 77 227 3.0 9.0 0.00 0.00 0.00 78 1018.8
20240226181711 76 186 4.0 9.0 0.00 0.00 0.00 78 1018.8
20240226181610 76 212 4.0 10.0 0.00 0.00 0.00 77 1018.9
20240226181509 77 196 4.0 11.0 0.00 0.00 0.00 78 1018.9
20240226181409 77 247 4.0 11.0 0.00 0.00 0.00 77 1019.0
20240226181311 77 106 4.0 12.0 0.00 0.00 0.00 78 1019.0
20240226181210 77 158 3.0 12.0 0.00 0.00 0.00 79 1019.0
20240226181110 76 135 3.0 12.0 0.00 0.00 0.00 78 1018.9
20240226181010 76 154 3.0 12.0 0.00 0.00 0.00 79 1018.9
20240226180911 76 196 3.0 12.0 0.00 0.00 0.00 79 1019.1
20240226180810 76 292 5.0 12.0 0.00 0.00 0.00 79 1018.9
20240226180709 76 265 6.0 12.0 0.00 0.00 0.00 79 1019.0
20240226180611 76 286 5.0 12.0 0.00 0.00 0.00 80 1019.1
20240226180509 76 251 6.0 12.0 0.00 0.00 0.00 80 1019.0
20240226180408 75 266 6.0 12.0 0.00 0.00 0.00 80 1019.0
20240226180306 75 251 4.0 11.0 0.00 0.00 0.00 80 1019.0
20240226180204 75 259 5.0 11.0 0.00 0.00 0.00 80 1019.0
20240226180105 75 258 6.0 11.0 0.00 0.00 0.00 80 1019.0
20240226180003 75 288 4.0 11.0 0.00 0.00 0.00 80 1019.0
20240226175903 75 173 5.0 11.0 0.00 0.00 0.00 80 1019.1
20240226175804 75 265 6.0 11.0 0.00 0.00 0.00 80 1019.1
20240226175702 75 250 4.0 10.0 0.00 0.00 0.00 80 1019.1
20240226175602 75 255 3.0 10.0 0.00 0.00 0.00 80 1019.1
20240226175504 75 259 4.0 10.0 0.00 0.00 0.00 80 1019.2
20240226175404 75 175 6.0 10.0 0.00 0.00 0.00 80 1019.2
20240226175305 75 257 5.0 9.0 0.00 0.00 0.00 80 1019.2
20240226175202 75 226 4.0 7.0 0.00 0.00 0.00 80 1019.2
20240226175103 75 227 4.0 7.0 0.00 0.00 0.00 81 1019.2
20240226175003 75 268 3.0 9.0 0.00 0.00 0.00 80 1019.2
20240226174904 75 305 3.0 9.0 0.00 0.00 0.00 81 1019.2
20240226174802 75 254 3.0 9.0 0.00 0.00 0.00 81 1019.3
20240226174703 75 266 2.0 9.0 0.00 0.00 0.00 81 1019.3
20240226174601 75 75 3.0 9.0 0.00 0.00 0.00 80 1019.3
20240226174502 75 0 3.0 9.0 0.00 0.00 0.00 81 1019.3
20240226174403 75 264 3.0 9.0 0.00 0.00 0.00 81 1019.3
20240226174304 75 282 3.0 13.0 0.00 0.00 0.00 80 1019.2
20240226174203 75 327 4.0 13.0 0.00 0.00 0.00 81 1019.4
20240226174102 75 204 5.0 13.0 0.00 0.00 0.00 80 1019.3
20240226174004 75 268 5.0 13.0 0.00 0.00 0.00 81 1019.3
20240226173903 75 185 3.0 13.0 0.00 0.00 0.00 81 1019.3
20240226173803 75 302 1.0 13.0 0.00 0.00 0.00 81 1019.4
20240226173704 75 296 1.0 13.0 0.00 0.00 0.00 80 1019.4
20240226173602 75 138 2.0 13.0 0.00 0.00 0.00 81 1019.4
20240226173502 75 264 4.0 13.0 0.00 0.00 0.00 81 1019.4
20240226173404 75 272 5.0 13.0 0.00 0.00 0.00 81 1019.3
20240226173302 75 141 4.0 13.0 0.00 0.00 0.00 81 1019.4
20240226173203 75 285 3.0 9.0 0.00 0.00 0.00 81 1019.4
20240226173102 75 272 2.0 9.0 0.00 0.00 0.00 81 1019.3
20240226173004 75 258 3.0 9.0 0.00 0.00 0.00 81 1019.4
20240226172902 74 261 3.0 9.0 0.00 0.00 0.00 81 1019.4
20240226172802 75 138 4.0 9.0 0.00 0.00 0.00 82 1019.4
20240226172703 74 275 5.0 9.0 0.00 0.00 0.00 82 1019.4
20240226172604 74 185 4.0 9.0 0.00 0.00 0.00 83 1019.4
20240226172501 74 306 3.0 9.0 0.00 0.00 0.00 82 1019.5
20240226172402 74 310 3.0 9.0 0.00 0.00 0.00 82 1019.5
20240226172305 74 272 3.0 9.0 0.00 0.00 0.00 83 1019.5
20240226172202 74 289 3.0 9.0 0.00 0.00 0.00 82 1019.5
20240226172103 74 206 3.0 9.0 0.00 0.00 0.00 82 1019.4
20240226172003 74 166 2.0 9.0 0.00 0.00 0.00 82 1019.4
20240226171902 74 164 3.0 9.0 0.00 0.00 0.00 82 1019.4
20240226171801 74 206 4.0 9.0 0.00 0.00 0.00 82 1019.4
20240226171704 74 158 4.0 9.0 0.00 0.00 0.00 82 1019.5
20240226171602 74 233 4.0 9.0 0.00 0.00 0.00 82 1019.4
20240226171504 74 262 3.0 9.0 0.00 0.00 0.00 82 1019.4
20240226171402 74 271 4.0 9.0 0.00 0.00 0.00 82 1019.4
20240226171304 74 309 5.0 9.0 0.00 0.00 0.00 82 1019.4
20240226171202 74 144 5.0 7.0 0.00 0.00 0.00 82 1019.5
20240226171104 74 293 3.0 10.0 0.00 0.00 0.00 83 1019.5
20240226171004 74 293 3.0 10.0 0.00 0.00 0.00 83 1019.5
20240226170903 74 293 3.0 10.0 0.00 0.00 0.00 83 1019.5
20240226170802 74 314 3.0 10.0 0.00 0.00 0.00 83 1019.5
20240226170702 74 219 3.0 10.0 0.00 0.00 0.00 83 1019.5
20240226170602 74 293 4.0 10.0 0.00 0.00 0.00 82 1019.4
20240226170502 74 175 4.0 10.0 0.00 0.00 0.00 82 1019.4
20240226170402 74 235 3.0 10.0 0.00 0.00 0.00 82 1019.6
20240226170303 74 281 3.0 10.0 0.00 0.00 0.00 83 1019.6
20240226170203 74 140 3.0 10.0 0.00 0.00 0.00 83 1019.6
20240226170101 74 292 2.0 11.0 0.00 0.00 0.00 83 1019.5
20240226170003 73 161 4.0 14.0 0.00 0.00 0.00 83 1019.7
20240226165904 73 244 4.0 14.0 0.00 0.00 0.00 83 1019.6
20240226165804 73 166 3.0 14.0 0.00 0.00 0.00 83 1019.7
20240226165703 73 240 3.0 14.0 0.00 0.00 0.00 83 1019.7
20240226165603 73 178 4.0 14.0 0.00 0.00 0.00 83 1019.6
20240226165502 73 298 4.0 14.0 0.00 0.00 0.00 83 1019.8
20240226165402 73 220 4.0 14.0 0.00 0.00 0.00 84 1019.8
20240226165306 73 265 6.0 14.0 0.00 0.00 0.00 83 1019.7
20240226165203 73 290 7.0 14.0 0.00 0.00 0.00 83 1019.8
20240226165101 73 247 6.0 14.0 0.00 0.00 0.00 84 1019.8
20240226165002 73 271 4.0 11.0 0.00 0.00 0.00 84 1019.8
20240226164904 73 264 3.0 10.0 0.00 0.00 0.00 83 1019.7
20240226164803 73 257 4.0 10.0 0.00 0.00 0.00 83 1019.8
20240226164701 73 103 4.0 10.0 0.00 0.00 0.00 83 1019.7
20240226164603 73 111 5.0 7.0 0.00 0.00 0.00 83 1019.8
20240226164503 73 241 5.0 7.0 0.00 0.00 0.00 84 1019.9
20240226164402 73 275 4.0 7.0 0.00 0.00 0.00 83 1019.8
20240226164301 73 224 2.0 6.0 0.00 0.00 0.00 84 1019.8
20240226164204 73 186 2.0 6.0 0.00 0.00 0.00 84 1019.9
20240226164102 73 186 2.0 7.0 0.00 0.00 0.00 84 1019.8
20240226164003 73 162 2.0 7.0 0.00 0.00 0.00 84 1019.8
20240226163903 73 188 2.0 9.0 0.00 0.00 0.00 85 1019.8
20240226163803 73 250 2.0 9.0 0.00 0.00 0.00 85 1019.8
20240226163702 73 250 3.0 9.0 0.00 0.00 0.00 85 1019.9
20240226163603 73 274 4.0 9.0 0.00 0.00 0.00 85 1020.0
20240226163504 72 258 4.0 9.0 0.00 0.00 0.00 85 1019.9
20240226163402 72 251 3.0 9.0 0.00 0.00 0.00 85 1019.9
20240226163303 72 165 4.0 9.0 0.00 0.00 0.00 85 1019.9
20240226163202 72 202 4.0 9.0 0.00 0.00 0.00 85 1019.9
20240226163102 72 276 4.0 9.0 0.00 0.00 0.00 85 1020.0
20240226163002 72 262 4.0 9.0 0.00 0.00 0.00 85 1020.0
20240226162904 72 275 5.0 9.0 0.00 0.00 0.00 85 1020.0
20240226162803 72 278 4.0 9.0 0.00 0.00 0.00 85 1019.9
20240226162701 72 142 4.0 9.0 0.00 0.00 0.00 85 1020.1
20240226162602 72 228 3.0 9.0 0.00 0.00 0.00 85 1019.9
20240226162504 72 286 4.0 9.0 0.00 0.00 0.00 85 1020.0
20240226162402 72 189 4.0 9.0 0.00 0.00 0.00 85 1020.0
20240226162305 72 261 4.0 9.0 0.00 0.00 0.00 85 1019.9
20240226162204 72 272 5.0 10.0 0.00 0.00 0.00 85 1019.9
20240226162102 72 293 5.0 10.0 0.00 0.00 0.00 85 1019.9
20240226162003 72 220 4.0 10.0 0.00 0.00 0.00 85 1019.8
20240226161904 72 97 3.0 10.0 0.00 0.00 0.00 85 1019.9
20240226161803 72 264 4.0 10.0 0.00 0.00 0.00 86 1019.8
20240226161703 72 162 3.0 10.0 0.00 0.00 0.00 86 1019.9
20240226161603 72 162 3.0 10.0 0.00 0.00 0.00 86 1019.9
20240226161504 72 199 3.0 10.0 0.00 0.00 0.00 86 1019.8
20240226161403 72 241 4.0 10.0 0.00 0.00 0.00 86 1019.9
20240226161237 72 269 2.0 7.0 0.00 0.00 0.00 86 1019.9
20240226161134 72 213 2.0 7.0 0.00 0.00 0.00 86 1019.9
20240226161034 71 281 2.0 9.0 0.00 0.00 0.00 86 1019.9
20240226160931 71 266 2.0 10.0 0.00 0.00 0.00 86 1020.0
20240226160830 71 312 2.0 10.0 0.00 0.00 0.00 86 1020.0
20240226160732 71 254 2.0 10.0 0.00 0.00 0.00 86 1020.0
20240226160632 71 137 2.0 10.0 0.00 0.00 0.00 86 1019.9
20240226160533 71 289 3.0 10.0 0.00 0.00 0.00 86 1020.0
20240226160431 71 0 3.0 10.0 0.00 0.00 0.00 86 1020.0
20240226160332 71 209 4.0 10.0 0.00 0.00 0.00 86 1019.9
20240226160227 71 243 4.0 10.0 0.00 0.00 0.00 86 1020.0
20240226160126 71 254 4.0 10.0 0.00 0.00 0.00 87 1020.0
20240226160024 71 188 4.0 10.0 0.00 0.00 0.00 86 1020.0
20240226155922 71 262 4.0 7.0 0.00 0.00 0.00 87 1020.0
20240226155820 71 290 3.0 7.0 0.00 0.00 0.00 87 1019.9
20240226155718 71 286 2.0 7.0 0.00 0.00 0.00 87 1019.9
20240226155618 71 245 3.0 9.0 0.00 0.00 0.00 87 1020.0
20240226155515 71 227 3.0 10.0 0.00 0.00 0.00 87 1019.9
20240226155415 71 255 2.0 11.0 0.00 0.00 0.00 87 1019.8
20240226155313 71 63 3.0 11.0 0.00 0.00 0.00 87 1019.9
20240226155212 71 272 4.0 11.0 0.00 0.00 0.00 87 1019.8
20240226155107 71 274 3.0 11.0 0.00 0.00 0.00 87 1019.8
20240226155008 71 298 3.0 11.0 0.00 0.00 0.00 87 1019.8
20240226154907 71 227 3.0 11.0 0.00 0.00 0.00 87 1019.9
20240226154806 71 16 4.0 11.0 0.00 0.00 0.00 87 1019.9
20240226154707 71 265 6.0 11.0 0.00 0.00 0.00 87 1019.8
20240226154607 71 259 5.0 11.0 0.00 0.00 0.00 87 1019.8
20240226154506 71 293 3.0 11.0 0.00 0.00 0.00 87 1019.8
20240226154409 71 279 3.0 11.0 0.00 0.00 0.00 87 1019.8
20240226154306 71 250 4.0 11.0 0.00 0.00 0.00 87 1019.9
20240226154207 71 54 4.0 11.0 0.00 0.00 0.00 87 1019.8
20240226154106 71 166 3.0 9.0 0.00 0.00 0.00 87 1019.9
20240226154008 71 303 4.0 9.0 0.00 0.00 0.00 87 1019.9
20240226153906 71 195 4.0 9.0 0.00 0.00 0.00 87 1020.0
20240226153806 71 157 4.0 9.0 0.00 0.00 0.00 87 1019.9
20240226153706 71 190 2.0 7.0 0.00 0.00 0.00 87 1019.9
20240226153606 71 285 4.0 7.0 0.00 0.00 0.00 87 1019.9
20240226153506 71 288 4.0 7.0 0.00 0.00 0.00 87 1019.9
20240226153406 71 176 3.0 7.0 0.00 0.00 0.00 87 1019.8
20240226153309 71 240 3.0 9.0 0.00 0.00 0.00 87 1019.9
20240226153206 71 264 2.0 10.0 0.00 0.00 0.00 87 1020.0
20240226153106 71 259 3.0 10.0 0.00 0.00 0.00 87 1020.0
20240226153007 71 244 3.0 10.0 0.00 0.00 0.00 87 1019.9
20240226152906 71 275 3.0 12.0 0.00 0.00 0.00 87 1020.0
20240226152806 70 290 3.0 13.0 0.00 0.00 0.00 87 1020.0
20240226152708 70 261 2.0 13.0 0.00 0.00 0.00 87 1020.0
20240226152606 70 183 3.0 13.0 0.00 0.00 0.00 88 1020.0
20240226152506 70 172 3.0 13.0 0.00 0.00 0.00 88 1020.0
20240226152406 70 185 5.0 13.0 0.00 0.00 0.00 87 1020.0
20240226152307 70 314 6.0 13.0 0.00 0.00 0.00 88 1020.0
20240226152206 70 275 6.0 13.0 0.00 0.00 0.00 88 1020.0
20240226152106 70 262 6.0 13.0 0.00 0.00 0.00 88 1020.0
20240226152007 70 295 6.0 13.0 0.00 0.00 0.00 88 1019.8
20240226151907 70 245 4.0 13.0 0.00 0.00 0.00 88 1020.0
20240226151805 70 265 4.0 18.0 0.00 0.00 0.00 88 1020.1
20240226151706 70 155 4.0 18.0 0.00 0.00 0.00 88 1019.9
20240226151608 70 197 4.0 18.0 0.00 0.00 0.00 88 1019.8
20240226151506 70 140 4.0 18.0 0.00 0.00 0.00 88 1019.7
20240226151406 70 148 3.0 18.0 0.00 0.00 0.00 88 1020.0
20240226151307 70 226 4.0 18.0 0.00 0.00 0.00 88 1019.8
20240226151206 70 230 5.0 18.0 0.00 0.00 0.00 88 1019.9
20240226151107 70 251 5.0 18.0 0.00 0.00 0.00 88 1019.8
20240226151006 70 269 5.0 18.0 0.00 0.00 0.00 88 1019.8
20240226150908 70 286 5.0 18.0 0.00 0.00 0.00 88 1019.8
20240226150806 70 243 4.0 13.0 0.00 0.00 0.00 88 1019.7
20240226150705 70 327 4.0 13.0 0.00 0.00 0.00 88 1019.8
20240226150605 70 268 5.0 13.0 0.00 0.00 0.00 88 1019.9
20240226150505 70 259 5.0 10.0 0.00 0.00 0.00 88 1019.8
20240226150406 70 313 4.0 10.0 0.00 0.00 0.00 88 1019.9
20240226150306 70 188 4.0 10.0 0.00 0.00 0.00 88 1019.8
20240226150206 70 188 4.0 10.0 0.00 0.00 0.00 88 1019.8
20240226150106 70 188 4.0 10.0 0.00 0.00 0.00 88 1019.8
20240226150006 70 188 4.0 10.0 0.00 0.00 0.00 88 1020.0
20240226145906 70 282 4.0 10.0 0.00 0.00 0.00 88 1019.9
20240226145805 70 251 4.0 10.0 0.00 0.00 0.00 88 1020.0
20240226145705 70 285 3.0 10.0 0.00 0.00 0.00 88 1019.8
20240226145606 70 250 3.0 10.0 0.00 0.00 0.00 88 1019.9
20240226145506 70 166 3.0 10.0 0.00 0.00 0.00 88 1019.8
20240226145405 70 272 3.0 10.0 0.00 0.00 0.00 88 1019.8
20240226145306 70 279 4.0 10.0 0.00 0.00 0.00 88 1019.8
20240226145206 70 316 5.0 10.0 0.00 0.00 0.00 88 1019.8
20240226145105 70 257 4.0 10.0 0.00 0.00 0.00 88 1019.8
20240226145006 70 261 5.0 10.0 0.00 0.00 0.00 88 1019.8
20240226144905 70 176 6.0 10.0 0.00 0.00 0.00 88 1019.6
20240226144806 70 264 5.0 10.0 0.00 0.00 0.00 88 1019.8
20240226144706 70 282 5.0 10.0 0.00 0.00 0.00 88 1019.7
20240226144605 70 298 4.0 11.0 0.00 0.00 0.00 88 1019.8
20240226144506 70 299 3.0 11.0 0.00 0.00 0.00 88 1019.8
20240226144405 70 231 3.0 11.0 0.00 0.00 0.00 88 1019.8
20240226144306 70 283 4.0 11.0 0.00 0.00 0.00 88 1019.8
20240226144205 70 274 4.0 11.0 0.00 0.00 0.00 88 1019.8
20240226144106 70 289 3.0 11.0 0.00 0.00 0.00 88 1019.8
20240226144005 70 272 4.0 11.0 0.00 0.00 0.00 88 1019.7
20240226143905 70 206 6.0 11.0 0.00 0.00 0.00 88 1019.7
20240226143806 70 241 6.0 11.0 0.00 0.00 0.00 88 1019.8
20240226143705 70 197 5.0 11.0 0.00 0.00 0.00 88 1019.6
20240226143605 70 241 5.0 9.0 0.00 0.00 0.00 88 1019.7
20240226143505 70 244 5.0 9.0 0.00 0.00 0.00 88 1019.7
20240226143407 70 276 4.0 9.0 0.00 0.00 0.00 88 1019.6
20240226143305 70 278 3.0 9.0 0.00 0.00 0.00 88 1019.7
20240226143205 70 257 3.0 9.0 0.00 0.00 0.00 88 1019.8
20240226143105 70 245 4.0 9.0 0.00 0.00 0.00 88 1019.7
20240226143005 70 269 4.0 9.0 0.00 0.00 0.00 88 1019.6
20240226142904 70 223 4.0 9.0 0.00 0.00 0.00 88 1019.6
20240226142807 70 190 5.0 9.0 0.00 0.00 0.00 88 1019.6
20240226142705 70 178 5.0 9.0 0.00 0.00 0.00 88 1019.7
20240226142604 70 276 4.0 10.0 0.00 0.00 0.00 88 1019.7
20240226142505 70 300 3.0 10.0 0.00 0.00 0.00 88 1019.7
20240226142407 70 300 4.0 12.0 0.00 0.00 0.00 88 1019.7
20240226142306 70 251 3.0 12.0 0.00 0.00 0.00 88 1019.6
20240226142205 70 255 3.0 12.0 0.00 0.00 0.00 88 1019.6
20240226142105 70 279 4.0 12.0 0.00 0.00 0.00 88 1019.6
20240226142005 70 243 5.0 12.0 0.00 0.00 0.00 88 1019.5
20240226141905 70 175 5.0 12.0 0.00 0.00 0.00 88 1019.5
20240226141805 70 250 4.0 12.0 0.00 0.00 0.00 88 1019.6
20240226141705 70 244 4.0 12.0 0.00 0.00 0.00 88 1019.6
20240226141605 70 204 5.0 12.0 0.00 0.00 0.00 88 1019.4
20240226141504 70 247 4.0 12.0 0.00 0.00 0.00 88 1019.5
20240226141404 69 334 3.0 10.0 0.00 0.00 0.00 88 1019.5
20240226141305 69 261 4.0 10.0 0.00 0.00 0.00 88 1019.5
20240226141205 69 124 4.0 10.0 0.00 0.00 0.00 88 1019.3
20240226141104 69 305 4.0 10.0 0.00 0.00 0.00 88 1019.4
20240226141006 69 259 5.0 10.0 0.00 0.00 0.00 88 1019.4
20240226140904 69 264 5.0 10.0 0.00 0.00 0.00 88 1019.4
20240226140804 69 312 5.0 10.0 0.00 0.00 0.00 88 1019.4
20240226140705 69 268 5.0 10.0 0.00 0.00 0.00 88 1019.4
20240226140604 69 272 4.0 6.0 0.00 0.00 0.00 88 1019.5
20240226140504 69 274 4.0 6.0 0.00 0.00 0.00 88 1019.4
20240226140404 69 286 4.0 6.0 0.00 0.00 0.00 88 1019.4
20240226140304 69 213 2.0 10.0 0.00 0.00 0.00 88 1019.4
20240226140204 69 173 2.0 10.0 0.00 0.00 0.00 88 1019.4
20240226140104 69 295 3.0 10.0 0.00 0.00 0.00 88 1019.4
20240226140004 69 240 3.0 10.0 0.00 0.00 0.00 88 1019.4
20240226135904 69 206 3.0 10.0 0.00 0.00 0.00 88 1019.5
20240226135804 69 274 3.0 10.0 0.00 0.00 0.00 88 1019.5
20240226135704 69 197 2.0 10.0 0.00 0.00 0.00 88 1019.5
20240226135604 69 241 2.0 10.0 0.00 0.00 0.00 88 1019.4
20240226135505 69 117 4.0 10.0 0.00 0.00 0.00 88 1019.3
20240226135404 69 271 3.0 10.0 0.00 0.00 0.00 88 1019.3
20240226135307 69 268 2.0 7.0 0.00 0.00 0.00 88 1019.4
20240226135204 69 217 3.0 7.0 0.00 0.00 0.00 88 1019.3
20240226135103 69 274 4.0 7.0 0.00 0.00 0.00 88 1019.4
20240226135004 69 288 4.0 7.0 0.00 0.00 0.00 88 1019.4
20240226134905 69 279 4.0 7.0 0.00 0.00 0.00 88 1019.4
20240226134803 69 251 5.0 7.0 0.00 0.00 0.00 88 1019.4
20240226134703 69 233 2.0 6.0 0.00 0.00 0.00 88 1019.3
20240226134604 69 233 2.0 6.0 0.00 0.00 0.00 88 1019.4
20240226134504 69 233 2.0 6.0 0.00 0.00 0.00 88 1019.5
20240226134403 69 285 2.0 9.0 0.00 0.00 0.00 88 1019.4
20240226134305 69 226 2.0 9.0 0.00 0.00 0.00 88 1019.5
20240226134205 69 217 3.0 9.0 0.00 0.00 0.00 88 1019.5
20240226134104 69 241 3.0 14.0 0.00 0.00 0.00 88 1019.5
20240226134003 69 247 2.0 14.0 0.00 0.00 0.00 88 1019.5
20240226133905 69 252 2.0 14.0 0.00 0.00 0.00 88 1019.5
20240226133803 69 168 3.0 14.0 0.00 0.00 0.00 88 1019.5
20240226133704 69 307 3.0 14.0 0.00 0.00 0.00 88 1019.5
20240226133603 69 305 4.0 14.0 0.00 0.00 0.00 88 1019.4
20240226133505 69 238 5.0 14.0 0.00 0.00 0.00 88 1019.4
20240226133403 69 217 5.0 14.0 0.00 0.00 0.00 88 1019.4
20240226133305 69 178 5.0 14.0 0.00 0.00 0.00 88 1019.4
20240226133204 69 293 4.0 14.0 0.00 0.00 0.00 88 1019.4
20240226133103 69 302 3.0 11.0 0.00 0.00 0.00 88 1019.4
20240226133003 69 247 5.0 11.0 0.00 0.00 0.00 88 1019.4
20240226132903 69 283 5.0 11.0 0.00 0.00 0.00 88 1019.4
20240226132804 69 276 4.0 11.0 0.00 0.00 0.00 89 1019.4
20240226132704 69 251 3.0 11.0 0.00 0.00 0.00 89 1019.4
20240226132603 69 289 4.0 11.0 0.00 0.00 0.00 89 1019.4
20240226132504 69 220 4.0 11.0 0.00 0.00 0.00 88 1019.5
20240226132403 69 245 4.0 11.0 0.00 0.00 0.00 89 1019.5
20240226132306 69 237 5.0 11.0 0.00 0.00 0.00 89 1019.5
20240226132203 69 299 4.0 11.0 0.00 0.00 0.00 89 1019.3
20240226132103 69 133 4.0 10.0 0.00 0.00 0.00 89 1019.4
20240226132004 69 285 3.0 10.0 0.00 0.00 0.00 89 1019.4
20240226131904 69 279 2.0 10.0 0.00 0.00 0.00 89 1019.4
20240226131804 69 264 3.0 10.0 0.00 0.00 0.00 89 1019.4
20240226131703 69 189 3.0 10.0 0.00 0.00 0.00 89 1019.4
20240226131604 69 278 4.0 10.0 0.00 0.00 0.00 89 1019.3
20240226131504 69 272 4.0 10.0 0.00 0.00 0.00 89 1019.2
20240226131403 69 266 3.0 10.0 0.00 0.00 0.00 89 1019.3
20240226131303 69 244 4.0 10.0 0.00 0.00 0.00 89 1019.3
20240226131203 69 275 4.0 10.0 0.00 0.00 0.00 89 1019.3
20240226131103 69 204 5.0 10.0 0.00 0.00 0.00 89 1019.4
20240226131003 69 281 5.0 10.0 0.00 0.00 0.00 89 1019.3
20240226130903 69 197 4.0 10.0 0.00 0.00 0.00 89 1019.3
20240226130804 69 244 4.0 10.0 0.00 0.00 0.00 89 1019.3
20240226130703 69 206 4.0 10.0 0.00 0.00 0.00 89 1019.3
20240226130603 69 276 4.0 10.0 0.00 0.00 0.00 89 1019.3
20240226130503 69 268 3.0 10.0 0.00 0.00 0.00 89 1019.3
20240226130404 69 140 3.0 10.0 0.00 0.00 0.00 89 1019.4
20240226130302 69 275 4.0 10.0 0.00 0.00 0.00 89 1019.4
20240226130202 69 262 4.0 10.0 0.00 0.00 0.00 89 1019.4
20240226130102 69 255 4.0 9.0 0.00 0.00 0.00 89 1019.3
20240226130004 69 237 3.0 9.0 0.00 0.00 0.00 89 1019.3
20240226125856 69 272 3.0 11.0 0.00 0.00 0.00 89 1019.3
20240226125755 69 293 4.0 11.0 0.00 0.00 0.00 89 1019.3
20240226125653 69 278 4.0 11.0 0.00 0.00 0.00 89 1019.3
20240226125552 69 281 3.0 11.0 0.00 0.00 0.00 89 1019.2
20240226125450 69 231 3.0 11.0 0.00 0.00 0.00 89 1019.4
20240226125348 69 265 3.0 11.0 0.00 0.00 0.00 89 1019.4
20240226125248 69 278 3.0 11.0 0.00 0.00 0.00 89 1019.3
20240226125145 69 233 4.0 11.0 0.00 0.00 0.00 89 1019.4
20240226125045 69 278 4.0 11.0 0.00 0.00 0.00 89 1019.3
20240226124942 69 279 5.0 10.0 0.00 0.00 0.00 89 1019.3
20240226124841 69 154 5.0 10.0 0.00 0.00 0.00 89 1019.3
20240226124736 69 292 3.0 10.0 0.00 0.00 0.00 89 1019.4
20240226124634 69 281 3.0 10.0 0.00 0.00 0.00 89 1019.4
20240226124534 69 188 2.0 10.0 0.00 0.00 0.00 89 1019.4
20240226124430 69 227 2.0 10.0 0.00 0.00 0.00 89 1019.3
20240226124330 69 258 4.0 10.0 0.00 0.00 0.00 89 1019.4
20240226124231 69 269 5.0 10.0 0.00 0.00 0.00 89 1019.3
20240226124130 69 288 5.0 10.0 0.00 0.00 0.00 89 1019.4
20240226124031 69 247 4.0 10.0 0.00 0.00 0.00 89 1019.3
20240226123933 69 288 3.0 10.0 0.00 0.00 0.00 89 1019.4
20240226123832 69 224 4.0 10.0 0.00 0.00 0.00 89 1019.4
20240226123731 69 178 6.0 10.0 0.00 0.00 0.00 89 1019.4
20240226123632 69 234 4.0 10.0 0.00 0.00 0.00 89 1019.3
20240226123507 69 282 4.0 10.0 0.00 0.00 0.00 89 1019.4
20240226123404 69 274 5.0 9.0 0.00 0.00 0.00 89 1019.3
20240226123303 69 302 4.0 9.0 0.00 0.00 0.00 89 1019.3
20240226123202 69 314 4.0 9.0 0.00 0.00 0.00 89 1019.3
20240226123102 69 123 4.0 9.0 0.00 0.00 0.00 89 1019.2
20240226123002 69 279 5.0 9.0 0.00 0.00 0.00 89 1019.2
20240226122902 69 296 4.0 9.0 0.00 0.00 0.00 89 1019.3
20240226122802 69 230 4.0 9.0 0.00 0.00 0.00 89 1019.1
20240226122701 69 206 4.0 9.0 0.00 0.00 0.00 89 1019.3
20240226122603 69 275 5.0 9.0 0.00 0.00 0.00 89 1019.3
20240226122502 69 306 4.0 9.0 0.00 0.00 0.00 89 1019.3
20240226122402 69 265 3.0 6.0 0.00 0.00 0.00 89 1019.4
20240226122306 69 289 4.0 6.0 0.00 0.00 0.00 89 1019.3
20240226122203 69 289 3.0 3.0 0.00 0.00 0.00 89 1019.3
20240226122103 0 0.0 0.0 0.00 0.00 0.00 1019.3
20240226122002 0 0.0 0.0 0.00 0.00 0.00 1019.3
20240226121902 0 0.0 5.0 0.00 0.00 0.00 1019.3
20240226121802 0 0.0 6.0 0.00 0.00 0.00 1019.3
20240226121702 0 0.0 7.0 0.00 0.00 0.00 1019.2
20240226121601 0 0.0 7.0 0.00 0.00 0.00 1019.2
20240226121503 0 0.0 7.0 0.00 0.00 0.00 1019.2
20240226121402 69 292 3.0 10.0 0.00 0.00 0.00 89 1019.2
20240226121302 69 292 3.0 10.0 0.00 0.00 0.00 89 1019.1
20240226121201 69 292 3.0 10.0 0.00 0.00 0.00 89 1019.1
20240226121102 69 292 3.0 10.0 0.00 0.00 0.00 89 1019.1
20240226121002 69 292 3.0 10.0 0.00 0.00 0.00 89 1019.1
20240226120903 69 300 5.0 10.0 0.00 0.00 0.00 89 1019.0
20240226120803 69 220 4.0 10.0 0.00 0.00 0.00 89 1019.0
20240226120702 69 293 3.0 11.0 0.00 0.00 0.00 89 1019.0
20240226120602 69 230 4.0 11.0 0.00 0.00 0.00 89 1019.1
20240226120502 69 180 4.0 11.0 0.00 0.00 0.00 89 1019.1
20240226120402 69 278 4.0 11.0 0.00 0.00 0.00 89 1019.0
20240226120302 69 288 4.0 11.0 0.00 0.00 0.00 89 1019.0
20240226120202 69 275 4.0 11.0 0.00 0.00 0.00 89 1019.1
20240226120104 69 228 5.0 11.0 0.00 0.00 0.00 89 1019.1
20240226120002 69 197 4.0 11.0 0.00 0.00 0.00 89 1019.2
20240226115903 69 337 6.0 11.0 0.00 0.00 0.00 89 1019.0
20240226115802 69 243 5.0 11.0 0.00 0.00 0.00 89 1019.0
20240226115701 69 262 3.0 11.0 0.00 0.00 0.00 89 1019.1
20240226115602 69 202 5.0 11.0 0.00 0.00 0.00 89 1019.1
20240226115504 69 251 5.0 11.0 0.00 0.00 0.00 89 1019.1
20240226115402 69 237 4.0 11.0 0.00 0.00 0.00 89 1018.9
20240226115305 69 272 4.0 11.0 0.00 0.00 0.00 89 1019.0
20240226115202 69 305 5.0 11.0 0.00 0.00 0.00 89 1019.0
20240226115103 69 252 6.0 11.0 0.00 0.00 0.00 89 1019.0
20240226115003 69 261 4.0 11.0 0.00 0.00 0.00 89 1019.0
20240226114903 69 302 2.0 9.0 0.00 0.00 0.00 89 1018.9
20240226114803 69 293 2.0 9.0 0.00 0.00 0.00 89 1019.0
20240226114702 69 149 3.0 10.0 0.00 0.00 0.00 89 1018.9
20240226114601 69 227 4.0 10.0 0.00 0.00 0.00 89 1019.0
20240226114459 69 237 5.0 10.0 0.00 0.00 0.00 89 1019.0
20240226114359 69 296 4.0 13.0 0.00 0.00 0.00 89 1019.1
20240226114257 69 238 3.0 13.0 0.00 0.00 0.00 89 1019.0
20240226114157 69 279 3.0 13.0 0.00 0.00 0.00 89 1019.0
20240226114058 69 241 4.0 13.0 0.00 0.00 0.00 89 1018.9
20240226113957 69 264 4.0 13.0 0.00 0.00 0.00 89 1019.0